VIR19Z EGLL-KSFO

Flight info

Callsign VIR19Z
Flight time N/A
Altitude 34000
Route CPT3G CPT L9 DIDZA N14 OKTAD DCT MEDOG DCT KRAGY DCT PEMOB DCT VATRY DCT PELIG DCT BILTO/M085F350 DCT 5630N02000W 57N030W 57N040W 57N050W DCT DORYY/M085F360 DCT PORGY/N0497F360 DCT MCKEE DCT GW DCT CHARN DCT YRL DCT HML/N0484F380 DCT DIK DCT MLD J158 MVA DCT INYOE DYAMD5
Aircraft A35K/H-SDE2E3GHIJ3J4J5LM1ORWXY/LB1D1

Departure

Time N/A
Airport London Heathrow Airport (EGLL)

Arrival

Time 2026-05-04 05:36
Airport San Francisco International Airport (KSFO)
Time Latitude Longitude Altitude Speed Heading
2026-05-03 20:15 55.56148 -12.56697 34134 ft 462 kts 311°
2026-05-03 20:15 55.59875 -12.65912 34132 ft 463 kts 310°
2026-05-03 20:16 55.63617 -12.75199 34137 ft 463 kts 310°
2026-05-03 20:16 55.67328 -12.84445 34134 ft 461 kts 310°
2026-05-03 20:17 55.71040 -12.93729 34136 ft 460 kts 310°
2026-05-03 20:17 55.74741 -13.03019 34126 ft 460 kts 310°
2026-05-03 20:18 55.78445 -13.12348 34138 ft 462 kts 310°
2026-05-03 20:18 55.82134 -13.21678 34143 ft 463 kts 310°
2026-05-03 20:19 55.85834 -13.31074 34139 ft 463 kts 309°
2026-05-03 20:19 55.89491 -13.40396 34144 ft 461 kts 309°
2026-05-03 20:20 55.93153 -13.49768 34144 ft 460 kts 309°
2026-05-03 20:20 55.96827 -13.59203 34145 ft 460 kts 309°
2026-05-03 20:21 56.00462 -13.68573 34145 ft 461 kts 309°
2026-05-03 20:21 56.04113 -13.78021 34142 ft 461 kts 309°
2026-05-03 20:22 56.07740 -13.87443 34144 ft 462 kts 308°
2026-05-03 20:22 56.11396 -13.96981 34146 ft 462 kts 308°
2026-05-03 20:23 56.15025 -14.06483 34162 ft 462 kts 308°
2026-05-03 20:23 56.18624 -14.15945 34142 ft 462 kts 308°
2026-05-03 20:24 56.22249 -14.25510 34141 ft 462 kts 308°
2026-05-03 20:24 56.25860 -14.35077 34143 ft 462 kts 308°
2026-05-03 20:25 56.29443 -14.44607 34144 ft 461 kts 307°
2026-05-03 20:25 56.33019 -14.54157 34148 ft 461 kts 307°
2026-05-03 20:26 56.36610 -14.63780 34144 ft 461 kts 307°
2026-05-03 20:26 56.39586 -14.71787 34147 ft 461 kts 307°
2026-05-03 20:27 56.43157 -14.81428 34144 ft 461 kts 307°
2026-05-03 20:27 56.46710 -14.91112 34141 ft 462 kts 305°
2026-05-03 20:28 56.49336 -15.01669 34658 ft 464 kts 289°
2026-05-03 20:28 56.50002 -15.07383 34991 ft 466 kts 281°
2026-05-03 20:28 56.50295 -15.13243 35123 ft 470 kts 277°
2026-05-03 20:29 56.50572 -15.25222 35150 ft 478 kts 275°
2026-05-03 20:29 56.50724 -15.37212 35141 ft 478 kts 275°
2026-05-03 20:30 56.50887 -15.49260 35148 ft 477 kts 275°
2026-05-03 20:30 56.51067 -15.61294 35144 ft 477 kts 275°
2026-05-03 20:31 56.51244 -15.73239 35141 ft 477 kts 275°
2026-05-03 20:31 56.51411 -15.85260 35141 ft 478 kts 275°
2026-05-03 20:32 56.51566 -15.97311 35151 ft 478 kts 274°
2026-05-03 20:32 56.51707 -16.09356 35150 ft 478 kts 274°
2026-05-03 20:33 56.51837 -16.21356 35148 ft 478 kts 274°
2026-05-03 20:33 56.51955 -16.33392 35151 ft 478 kts 274°
2026-05-03 20:34 56.52063 -16.45471 35145 ft 479 kts 274°
2026-05-03 20:34 56.52158 -16.57534 35149 ft 479 kts 274°
2026-05-03 20:35 56.52242 -16.69608 35151 ft 479 kts 274°
2026-05-03 20:35 56.52313 -16.81585 35151 ft 478 kts 273°
2026-05-03 20:36 56.52373 -16.93619 35155 ft 477 kts 273°
2026-05-03 20:36 56.52422 -17.05645 35152 ft 477 kts 273°
2026-05-03 20:37 56.52459 -17.17678 35159 ft 477 kts 272°
2026-05-03 20:37 56.52485 -17.29645 35159 ft 477 kts 272°
2026-05-03 20:38 56.52499 -17.41700 35153 ft 477 kts 272°
2026-05-03 20:38 56.52501 -17.53727 35155 ft 477 kts 272°
2026-05-03 20:39 56.52492 -17.65675 35153 ft 477 kts 272°
2026-05-03 20:39 56.52471 -17.77733 35160 ft 478 kts 272°
2026-05-03 20:40 56.52438 -17.89749 35155 ft 478 kts 271°
2026-05-03 20:40 56.52394 -18.01803 35154 ft 478 kts 271°
2026-05-03 20:41 56.52338 -18.13877 35155 ft 478 kts 271°
2026-05-03 20:41 56.52270 -18.25873 35157 ft 478 kts 271°
2026-05-03 20:42 56.52191 -18.37931 35159 ft 478 kts 271°
2026-05-03 20:42 56.52100 -18.50006 35159 ft 478 kts 271°
2026-05-03 20:43 56.51998 -18.61999 35166 ft 478 kts 271°
2026-05-03 20:43 56.51883 -18.74051 35159 ft 477 kts 271°
2026-05-03 20:44 56.51758 -18.86057 35163 ft 476 kts 270°
2026-05-03 20:44 56.51621 -18.97998 35165 ft 476 kts 271°
2026-05-03 20:45 56.51473 -19.09991 35163 ft 475 kts 270°
2026-05-03 20:45 56.51314 -19.21974 35165 ft 476 kts 270°
2026-05-03 20:46 56.51142 -19.33950 35175 ft 476 kts 270°
2026-05-03 20:46 56.50960 -19.45889 35160 ft 475 kts 270°
2026-05-03 20:47 56.50766 -19.57886 35171 ft 476 kts 269°
2026-05-03 20:47 56.50559 -19.69885 35171 ft 476 kts 270°
2026-05-03 20:48 56.50343 -19.81805 35178 ft 477 kts 270°
2026-05-03 20:48 56.50115 -19.93775 35174 ft 476 kts 269°
2026-05-03 20:49 56.50538 -20.05681 35176 ft 475 kts 279°
2026-05-03 20:49 56.51533 -20.17541 35177 ft 474 kts 280°
2026-05-03 20:50 56.52602 -20.29294 35175 ft 475 kts 280°
2026-05-03 20:50 56.53667 -20.41121 35179 ft 474 kts 279°
2026-05-03 20:51 56.54702 -20.52915 35178 ft 471 kts 279°
2026-05-03 20:51 56.55709 -20.64594 35180 ft 472 kts 279°
2026-05-03 20:52 56.56716 -20.76411 35177 ft 474 kts 279°
2026-05-03 20:52 56.57710 -20.88220 35180 ft 473 kts 279°
2026-05-03 20:53 56.58689 -20.99971 35182 ft 475 kts 278°
2026-05-03 20:53 56.59666 -21.11852 35186 ft 475 kts 279°
2026-05-03 20:54 56.60630 -21.23711 35185 ft 473 kts 278°
2026-05-03 20:54 56.62049 -21.41444 35184 ft 475 kts 278°
2026-05-03 20:55 56.62984 -21.53303 35185 ft 471 kts 278°
2026-05-03 20:55 56.63899 -21.65061 35190 ft 473 kts 278°
2026-05-03 20:56 56.64810 -21.76920 35191 ft 473 kts 278°
2026-05-03 20:56 56.65710 -21.88783 35188 ft 472 kts 278°
2026-05-03 20:57 56.66593 -22.00587 35193 ft 474 kts 277°
2026-05-03 20:57 56.67471 -22.12463 35189 ft 471 kts 278°
2026-05-03 20:58 56.68331 -22.24270 35197 ft 470 kts 277°
2026-05-03 20:58 56.69179 -22.36055 35189 ft 472 kts 277°
2026-05-03 20:59 56.70014 -22.47829 35198 ft 468 kts 277°
2026-05-03 20:59 56.70840 -22.59639 35199 ft 471 kts 277°
2026-05-03 21:00 56.71389 -22.67566 35197 ft 471 kts 277°
2026-05-03 21:00 56.72455 -22.83222 35203 ft 468 kts 277°
2026-05-03 21:01 56.73248 -22.95048 35202 ft 471 kts 277°
2026-05-03 21:01 56.74029 -23.06865 35203 ft 468 kts 277°
2026-05-03 21:02 56.74794 -23.18623 35205 ft 468 kts 277°
2026-05-03 21:02 56.75552 -23.30444 35211 ft 470 kts 277°
2026-05-03 21:03 56.76294 -23.42184 35208 ft 467 kts 277°
2026-05-03 21:03 56.77029 -23.54005 35214 ft 469 kts 277°
2026-05-03 21:04 56.77751 -23.65803 35209 ft 468 kts 277°
2026-05-03 21:04 56.78462 -23.77588 35206 ft 467 kts 276°
2026-05-03 21:05 56.79163 -23.89418 35217 ft 468 kts 276°
2026-05-03 21:05 56.79847 -24.01147 35217 ft 466 kts 276°
2026-05-03 21:06 56.80524 -24.12948 35222 ft 469 kts 276°
2026-05-03 21:06 56.81195 -24.24833 35217 ft 468 kts 276°
2026-05-03 21:07 56.81844 -24.36551 35216 ft 467 kts 276°
2026-05-03 21:07 56.82489 -24.48396 35217 ft 469 kts 276°
2026-05-03 21:08 56.83122 -24.60217 35220 ft 466 kts 275°
2026-05-03 21:08 56.83741 -24.72003 35219 ft 469 kts 275°
2026-05-03 21:09 56.84354 -24.83886 35220 ft 468 kts 275°
2026-05-03 21:09 56.84853 -24.93716 35223 ft 467 kts 275°
2026-05-03 21:10 56.85445 -25.05596 35221 ft 469 kts 275°
2026-05-03 21:10 56.86020 -25.17373 35226 ft 465 kts 275°
2026-05-03 21:11 56.86587 -25.29212 35229 ft 468 kts 275°
2026-05-03 21:11 56.87141 -25.41018 35225 ft 467 kts 275°
2026-05-03 21:12 56.87686 -25.52868 35232 ft 467 kts 274°
2026-05-03 21:12 56.88220 -25.64719 35224 ft 470 kts 274°
2026-05-03 21:13 56.88743 -25.76593 35232 ft 467 kts 274°
2026-05-03 21:13 56.89256 -25.88483 35242 ft 470 kts 274°
2026-05-03 21:14 56.89755 -26.00334 35234 ft 467 kts 274°
2026-05-03 21:14 56.90243 -26.12173 35234 ft 467 kts 274°
2026-05-03 21:15 56.90722 -26.24080 35239 ft 470 kts 274°
2026-05-03 21:15 56.91187 -26.35931 35236 ft 468 kts 274°
2026-05-03 21:16 56.91646 -26.47896 35235 ft 471 kts 274°
2026-05-03 21:16 56.92090 -26.59776 35242 ft 468 kts 273°
2026-05-03 21:17 56.92452 -26.69704 35242 ft 470 kts 273°
2026-05-03 21:17 56.92948 -26.83696 35243 ft 470 kts 273°
2026-05-03 21:18 56.93361 -26.95665 35245 ft 471 kts 273°
2026-05-03 21:18 56.93761 -27.07606 35251 ft 471 kts 273°
2026-05-03 21:19 56.94150 -27.19551 35251 ft 469 kts 273°
2026-05-03 21:19 56.94526 -27.31462 35244 ft 471 kts 273°
2026-05-03 21:20 56.94894 -27.43482 35253 ft 469 kts 273°
2026-05-03 21:20 56.95247 -27.55383 35249 ft 472 kts 273°
2026-05-03 21:21 56.95592 -27.67401 35258 ft 469 kts 272°
2026-05-03 21:21 56.95924 -27.79371 35251 ft 471 kts 272°
2026-05-03 21:22 56.96242 -27.91269 35257 ft 470 kts 272°
2026-05-03 21:22 56.96551 -28.03229 35258 ft 470 kts 272°
2026-05-03 21:23 56.96850 -28.15243 35263 ft 471 kts 272°
2026-05-03 21:23 56.97136 -28.27223 35259 ft 469 kts 272°
2026-05-03 21:24 56.97410 -28.39143 35254 ft 470 kts 272°
2026-05-03 21:24 56.97673 -28.51097 35266 ft 468 kts 272°
2026-05-03 21:25 56.97925 -28.63061 35258 ft 470 kts 272°
2026-05-03 21:25 56.98163 -28.74941 35265 ft 467 kts 272°
2026-05-03 21:26 56.98392 -28.86897 35265 ft 470 kts 272°
2026-05-03 21:26 56.98610 -28.98892 35270 ft 468 kts 272°
2026-05-03 21:27 56.98815 -29.10786 35268 ft 470 kts 271°
2026-05-03 21:27 56.99011 -29.22818 35264 ft 468 kts 271°
2026-05-03 21:28 56.99193 -29.34750 35270 ft 468 kts 271°
2026-05-03 21:28 56.99365 -29.46668 35270 ft 468 kts 271°
2026-05-03 21:29 56.99524 -29.58598 35273 ft 468 kts 271°
2026-05-03 21:29 56.99673 -29.70523 35274 ft 468 kts 271°
2026-05-03 21:30 56.99811 -29.82478 35279 ft 467 kts 271°
2026-05-03 21:30 56.99937 -29.94442 35279 ft 468 kts 271°
2026-05-03 21:31 57.00107 -30.06307 35273 ft 467 kts 273°
2026-05-03 21:31 57.00594 -30.18259 35276 ft 469 kts 274°
2026-05-03 21:32 57.01125 -30.30113 35281 ft 467 kts 274°
2026-05-03 21:32 57.01603 -30.42051 35283 ft 467 kts 274°
2026-05-03 21:33 57.02035 -30.53893 35278 ft 467 kts 273°
2026-05-03 21:33 57.02450 -30.65819 35285 ft 467 kts 273°
2026-05-03 21:34 57.02853 -30.77665 35288 ft 467 kts 273°
2026-05-03 21:34 57.03249 -30.89590 35281 ft 467 kts 273°
2026-05-03 21:35 57.03634 -31.01513 35283 ft 467 kts 273°
2026-05-03 21:35 57.04005 -31.13374 35284 ft 466 kts 273°
2026-05-03 21:36 57.04368 -31.25320 35281 ft 467 kts 273°
2026-05-03 21:36 57.04717 -31.37176 35282 ft 467 kts 272°
2026-05-03 21:37 57.05056 -31.49103 35283 ft 466 kts 272°
2026-05-03 21:37 57.05385 -31.61035 35281 ft 466 kts 272°
2026-05-03 21:38 57.05699 -31.72853 35284 ft 466 kts 272°
2026-05-03 21:38 57.06004 -31.84796 35285 ft 467 kts 272°
2026-05-03 21:39 57.06298 -31.96703 35290 ft 466 kts 272°
2026-05-03 21:39 57.06579 -32.08558 35290 ft 467 kts 272°
2026-05-03 21:40 57.06850 -32.20483 35291 ft 466 kts 272°
2026-05-03 21:40 57.07110 -32.32389 35291 ft 467 kts 272°
2026-05-03 21:41 57.07357 -32.44266 35298 ft 467 kts 271°
2026-05-03 21:41 57.07595 -32.56219 35288 ft 467 kts 271°
2026-05-03 21:42 57.07822 -32.68178 35288 ft 467 kts 271°
2026-05-03 21:42 57.08035 -32.80022 35288 ft 466 kts 271°
2026-05-03 21:43 57.08239 -32.91977 35286 ft 467 kts 271°
2026-05-03 21:43 57.08431 -33.03904 35292 ft 466 kts 271°
2026-05-03 21:44 57.08612 -33.15867 35290 ft 468 kts 271°
2026-05-03 21:44 57.08781 -33.27815 35296 ft 468 kts 271°
2026-05-03 21:45 57.08939 -33.39747 35287 ft 470 kts 271°
2026-05-03 21:45 57.09087 -33.51780 35299 ft 468 kts 270°
2026-05-03 21:46 57.09222 -33.63697 35298 ft 469 kts 270°
2026-05-03 21:46 57.09346 -33.75689 35294 ft 468 kts 270°
2026-05-03 21:47 57.09460 -33.87715 35300 ft 472 kts 270°
2026-05-03 21:47 57.09561 -33.99741 35296 ft 472 kts 270°
2026-05-03 21:48 57.09652 -34.11833 35305 ft 474 kts 270°
2026-05-03 21:48 57.09731 -34.23915 35303 ft 472 kts 269°
2026-05-03 21:49 57.09799 -34.36001 35302 ft 473 kts 270°
2026-05-03 21:49 57.09855 -34.48111 35305 ft 472 kts 269°
2026-05-03 21:50 57.09899 -34.60201 35303 ft 474 kts 269°
2026-05-03 21:50 57.09931 -34.72306 35307 ft 476 kts 269°
2026-05-03 21:51 57.09952 -34.84515 35305 ft 477 kts 269°
2026-05-03 21:51 57.09961 -34.94655 35303 ft 476 kts 269°
2026-05-03 21:52 57.09959 -35.08821 35303 ft 476 kts 269°
2026-05-03 21:52 57.09948 -35.18973 35304 ft 476 kts 268°
2026-05-03 21:53 57.09923 -35.31163 35309 ft 478 kts 268°
2026-05-03 21:53 57.09886 -35.43450 35304 ft 481 kts 268°
2026-05-03 21:54 57.09838 -35.55723 35311 ft 481 kts 268°
2026-05-03 21:54 57.09777 -35.68070 35310 ft 480 kts 268°
2026-05-03 21:55 57.09705 -35.80294 35306 ft 480 kts 268°
2026-05-03 21:55 57.09620 -35.92623 35310 ft 480 kts 268°
2026-05-03 21:56 57.09524 -36.04917 35310 ft 482 kts 267°
2026-05-03 21:56 57.09414 -36.17214 35305 ft 484 kts 267°
2026-05-03 21:57 57.09293 -36.29610 35309 ft 485 kts 267°
2026-05-03 21:57 57.09159 -36.42020 35314 ft 484 kts 267°
2026-05-03 21:58 57.09013 -36.54343 35315 ft 484 kts 267°
2026-05-03 21:58 57.08856 -36.66721 35309 ft 482 kts 267°
2026-05-03 21:59 57.08684 -36.79129 35314 ft 486 kts 266°
2026-05-03 21:59 57.08500 -36.91537 35314 ft 488 kts 267°
2026-05-03 22:00 57.08305 -37.03962 35314 ft 488 kts 266°
2026-05-03 22:00 57.08096 -37.16440 35314 ft 488 kts 266°
2026-05-03 22:01 57.07875 -37.28947 35317 ft 488 kts 266°
2026-05-03 22:01 57.07643 -37.41327 35323 ft 488 kts 266°
2026-05-03 22:02 57.07395 -37.53869 35314 ft 491 kts 266°
2026-05-03 22:02 57.07136 -37.66360 35316 ft 490 kts 266°
2026-05-03 22:03 57.06864 -37.78881 35309 ft 489 kts 266°
2026-05-03 22:03 57.06580 -37.91385 35314 ft 489 kts 266°
2026-05-03 22:04 57.06283 -38.03898 35314 ft 489 kts 266°
2026-05-03 22:04 57.05976 -38.16330 35314 ft 489 kts 266°
2026-05-03 22:05 57.05652 -38.28879 35315 ft 492 kts 266°
2026-05-03 22:05 57.05317 -38.41445 35314 ft 492 kts 266°
2026-05-03 22:06 57.04971 -38.53932 35316 ft 492 kts 266°
2026-05-03 22:06 57.04609 -38.66506 35309 ft 492 kts 265°
2026-05-03 22:07 57.04236 -38.79053 35311 ft 491 kts 265°
2026-05-03 22:07 57.03853 -38.91504 35311 ft 491 kts 265°
2026-05-03 22:08 57.03455 -39.04054 35308 ft 491 kts 265°
2026-05-03 22:08 57.03047 -39.16518 35310 ft 490 kts 265°
2026-05-03 22:09 57.02625 -39.29025 35310 ft 491 kts 265°
2026-05-03 22:10 57.01967 -39.47817 35305 ft 490 kts 265°
2026-05-03 22:10 57.01514 -39.60308 35308 ft 491 kts 265°
2026-05-03 22:11 57.01050 -39.72752 35305 ft 491 kts 265°
2026-05-03 22:11 57.00570 -39.85285 35306 ft 491 kts 264°
2026-05-03 22:12 57.00114 -39.97797 35302 ft 491 kts 268°
2026-05-03 22:12 57.00381 -40.10292 35306 ft 492 kts 272°
2026-05-03 22:13 57.00850 -40.22840 35303 ft 492 kts 273°
2026-05-03 22:13 57.01342 -40.35372 35304 ft 492 kts 273°
2026-05-03 22:14 57.01812 -40.47876 35303 ft 494 kts 273°
2026-05-03 22:14 57.02263 -40.60459 35301 ft 492 kts 273°
2026-05-03 22:15 57.02697 -40.73018 35301 ft 491 kts 272°
2026-05-03 22:15 57.03114 -40.85455 35295 ft 491 kts 272°
2026-05-03 22:16 57.03523 -40.98002 35294 ft 491 kts 272°
2026-05-03 22:16 57.03919 -41.10555 35293 ft 491 kts 272°
2026-05-03 22:17 57.04302 -41.23091 35293 ft 492 kts 272°
2026-05-03 22:17 57.04672 -41.35611 35294 ft 493 kts 272°
2026-05-03 22:18 57.05032 -41.48195 35292 ft 491 kts 272°
2026-05-03 22:18 57.05375 -41.60648 35289 ft 491 kts 272°
2026-05-03 22:19 57.05709 -41.73210 35289 ft 490 kts 272°
2026-05-03 22:19 57.06028 -41.85697 35281 ft 491 kts 272°
2026-05-03 22:20 57.06336 -41.98239 35287 ft 490 kts 272°
2026-05-03 22:20 57.06630 -42.10721 35284 ft 491 kts 272°
2026-05-03 22:21 57.06913 -42.23281 35279 ft 491 kts 271°
2026-05-03 22:21 57.07183 -42.35824 35281 ft 489 kts 271°
2026-05-03 22:22 57.07439 -42.48237 35275 ft 489 kts 271°
2026-05-03 22:22 57.07683 -42.60754 35278 ft 489 kts 271°
2026-05-03 22:23 57.07914 -42.73213 35274 ft 489 kts 271°
2026-05-03 22:23 57.08134 -42.85705 35271 ft 489 kts 271°
2026-05-03 22:24 57.08341 -42.98203 35269 ft 488 kts 271°
2026-05-03 22:24 57.08535 -43.10685 35268 ft 488 kts 271°
2026-05-03 22:25 57.08717 -43.23172 35258 ft 488 kts 271°
2026-05-03 22:25 57.08886 -43.35581 35259 ft 488 kts 270°
2026-05-03 22:26 57.09043 -43.48071 35262 ft 488 kts 270°
2026-05-03 22:26 57.09188 -43.60567 35255 ft 488 kts 270°
2026-05-03 22:27 57.09320 -43.72980 35251 ft 487 kts 270°
2026-05-03 22:27 57.09440 -43.85448 35258 ft 484 kts 270°
2026-05-03 22:28 57.09546 -43.97789 35252 ft 485 kts 270°
2026-05-03 22:28 57.09641 -44.10200 35247 ft 484 kts 270°
2026-05-03 22:29 57.09724 -44.22615 35242 ft 485 kts 270°
2026-05-03 22:29 57.09794 -44.35024 35242 ft 484 kts 269°
2026-05-03 22:30 57.09852 -44.47345 35240 ft 485 kts 269°
2026-05-03 22:30 57.09898 -44.59745 35232 ft 482 kts 269°
2026-05-03 22:31 57.09931 -44.72101 35242 ft 482 kts 269°
2026-05-03 22:31 57.09952 -44.84448 35230 ft 482 kts 269°
2026-05-03 22:32 57.09961 -44.96740 35227 ft 482 kts 269°
2026-05-03 22:32 57.09959 -45.09007 35228 ft 482 kts 269°
2026-05-03 22:33 57.09944 -45.21351 35218 ft 482 kts 269°
2026-05-03 22:33 57.09917 -45.33682 35222 ft 481 kts 269°
2026-05-03 22:34 57.09885 -45.43915 35221 ft 480 kts 269°
2026-05-03 22:34 57.09836 -45.56178 35204 ft 479 kts 268°
2026-05-03 22:35 57.09775 -45.68437 35213 ft 479 kts 268°
2026-05-03 22:35 57.09703 -45.80642 35213 ft 479 kts 268°
2026-05-03 22:36 57.09618 -45.92912 35192 ft 479 kts 268°
2026-05-03 22:36 57.09521 -46.05185 35205 ft 479 kts 268°
2026-05-03 22:37 57.09412 -46.17433 35190 ft 479 kts 268°
2026-05-03 22:37 57.09293 -46.29625 35188 ft 476 kts 268°
2026-05-03 22:38 57.09161 -46.41760 35191 ft 475 kts 268°
2026-05-03 22:38 57.09018 -46.53888 35187 ft 475 kts 268°
2026-05-03 22:39 57.08863 -46.66067 35184 ft 475 kts 267°
2026-05-03 22:39 57.08697 -46.78171 35185 ft 475 kts 267°
2026-05-03 22:40 57.08519 -46.90337 35175 ft 475 kts 267°
2026-05-03 22:40 57.08329 -47.02454 35177 ft 475 kts 267°
2026-05-03 22:41 57.08127 -47.14615 35173 ft 475 kts 267°
2026-05-03 22:41 57.07914 -47.26708 35165 ft 475 kts 266°
2026-05-03 22:42 57.07688 -47.38889 35163 ft 475 kts 266°
2026-05-03 22:42 57.07452 -47.51003 35161 ft 476 kts 266°
2026-05-03 22:43 57.07203 -47.63164 35154 ft 475 kts 266°
2026-05-03 22:43 57.06942 -47.75322 35156 ft 475 kts 266°
2026-05-03 22:44 57.06671 -47.87404 35146 ft 476 kts 266°
2026-05-03 22:44 57.06385 -47.99616 35145 ft 478 kts 265°
2026-05-03 22:45 57.06089 -48.11795 35145 ft 479 kts 265°
2026-05-03 22:45 57.05777 -48.24070 35133 ft 480 kts 265°
2026-05-03 22:46 57.05454 -48.36354 35133 ft 480 kts 265°
2026-05-03 22:46 57.05121 -48.48548 35136 ft 480 kts 265°
2026-05-03 22:47 57.04773 -48.60850 35123 ft 480 kts 265°
2026-05-03 22:47 57.04417 -48.73031 35122 ft 481 kts 264°
2026-05-03 22:48 57.04045 -48.85326 35132 ft 482 kts 264°
2026-05-03 22:48 57.03660 -48.97643 35116 ft 482 kts 263°
2026-05-03 22:49 57.03266 -49.09888 35112 ft 482 kts 263°
2026-05-03 22:49 57.02857 -49.22190 35094 ft 482 kts 263°
2026-05-03 22:50 57.02439 -49.34428 35098 ft 482 kts 263°
2026-05-03 22:50 57.02005 -49.46761 35104 ft 482 kts 263°
2026-05-03 22:51 57.01564 -49.58978 35092 ft 481 kts 263°
2026-05-03 22:51 57.01109 -49.71225 35094 ft 480 kts 263°
2026-05-03 22:52 57.00643 -49.83450 35080 ft 480 kts 262°
2026-05-03 22:52 57.00167 -49.95598 35074 ft 480 kts 262°
2026-05-03 22:53 56.99170 -50.07661 35078 ft 477 kts 256°
2026-05-03 22:53 56.97911 -50.19558 35086 ft 476 kts 255°
2026-05-03 22:54 56.96593 -50.31472 35073 ft 476 kts 256°
2026-05-03 22:54 56.95276 -50.43325 35071 ft 471 kts 256°
2026-05-03 22:55 56.93964 -50.55095 35071 ft 471 kts 256°
2026-05-03 22:55 56.92652 -50.66773 35067 ft 470 kts 255°
2026-05-03 22:56 56.91321 -50.78516 35059 ft 470 kts 255°
2026-05-03 22:56 56.89980 -50.90244 35059 ft 470 kts 255°
2026-05-03 22:57 56.88638 -51.01883 35059 ft 470 kts 255°
2026-05-03 22:57 56.87279 -51.13575 35056 ft 467 kts 255°
2026-05-03 22:58 56.85925 -51.25110 35056 ft 466 kts 255°
2026-05-03 22:58 56.84554 -51.36693 35045 ft 466 kts 255°
2026-05-03 22:59 56.83171 -51.48273 35045 ft 466 kts 255°
2026-05-03 22:59 56.81778 -51.59850 35045 ft 466 kts 255°
2026-05-03 23:00 56.80375 -51.71401 35049 ft 466 kts 255°
2026-05-03 23:00 56.78978 -51.82817 35043 ft 462 kts 255°
2026-05-03 23:01 56.77565 -51.94269 35039 ft 461 kts 255°
2026-05-03 23:01 56.76152 -52.05630 35037 ft 461 kts 255°
2026-05-03 23:02 56.74717 -52.17064 35034 ft 461 kts 255°
2026-05-03 23:02 56.73277 -52.28452 35034 ft 461 kts 255°
2026-05-03 23:03 56.71832 -52.39793 35035 ft 461 kts 255°
2026-05-03 23:03 56.70373 -52.51157 35035 ft 456 kts 255°
2026-05-03 23:04 56.68931 -52.62298 35033 ft 453 kts 255°
2026-05-03 23:04 56.67471 -52.73482 35031 ft 453 kts 255°
2026-05-03 23:05 56.66004 -52.84643 35023 ft 453 kts 255°
2026-05-03 23:05 56.64539 -52.95707 35018 ft 453 kts 255°
2026-05-03 23:06 56.63048 -53.06876 35018 ft 453 kts 255°
2026-05-03 23:06 56.61561 -53.17942 35017 ft 448 kts 255°
2026-05-03 23:07 56.60085 -53.28843 35014 ft 445 kts 255°
2026-05-03 23:07 56.58594 -53.39767 35012 ft 445 kts 255°
2026-05-03 23:08 56.57096 -53.50668 35010 ft 446 kts 255°
2026-05-03 23:08 56.55597 -53.61507 35001 ft 446 kts 255°
2026-05-03 23:09 56.54073 -53.72440 35001 ft 446 kts 254°
2026-05-03 23:09 56.52551 -53.83286 34997 ft 444 kts 255°
2026-05-03 23:10 56.51028 -53.94070 35002 ft 438 kts 255°
2026-05-03 23:10 56.49508 -54.04749 34996 ft 437 kts 254°
2026-05-03 23:11 56.47980 -54.15413 34992 ft 437 kts 254°
2026-05-03 23:11 56.46454 -54.25991 34993 ft 437 kts 254°
2026-05-03 23:12 56.44906 -54.36651 34991 ft 437 kts 254°
2026-05-03 23:12 56.43347 -54.47314 34989 ft 439 kts 254°
2026-05-03 23:13 56.41788 -54.57915 34988 ft 439 kts 254°
2026-05-03 23:13 56.40206 -54.68593 34984 ft 439 kts 253°
2026-05-03 23:14 56.38624 -54.79203 34985 ft 438 kts 253°
2026-05-03 23:14 56.37028 -54.89835 34978 ft 438 kts 253°
2026-05-03 23:15 56.35432 -55.00401 34980 ft 438 kts 253°
2026-05-03 23:15 56.33820 -55.11006 34976 ft 438 kts 253°
2026-05-03 23:16 56.32208 -55.21541 34979 ft 435 kts 253°
2026-05-03 23:16 56.30592 -55.32037 34980 ft 433 kts 253°
2026-05-03 23:17 56.28976 -55.42463 34969 ft 433 kts 253°
2026-05-03 23:17 56.27622 -55.51147 34968 ft 433 kts 253°
2026-05-03 23:18 56.25714 -55.63307 34971 ft 433 kts 252°
2026-05-03 23:18 56.24336 -55.72043 34969 ft 433 kts 252°
2026-05-03 23:19 56.22691 -55.82410 34964 ft 433 kts 252°
2026-05-03 23:19 56.21033 -55.92795 34965 ft 428 kts 252°
2026-05-03 23:20 56.19385 -56.03055 34966 ft 427 kts 252°
2026-05-03 23:20 56.17739 -56.13233 34967 ft 426 kts 252°
2026-05-03 23:21 56.16070 -56.23497 34958 ft 429 kts 252°
2026-05-03 23:21 56.14385 -56.33797 34959 ft 430 kts 252°
2026-05-03 23:22 56.11845 -56.49215 34960 ft 430 kts 252°
2026-05-03 23:22 56.10145 -56.59461 34955 ft 427 kts 251°
2026-05-03 23:23 56.08456 -56.69580 34954 ft 425 kts 251°
2026-05-03 23:23 56.06750 -56.79738 34951 ft 425 kts 251°
2026-05-03 23:24 56.05191 -56.89947 34952 ft 427 kts 257°
2026-05-03 23:24 56.04896 -57.00586 35302 ft 432 kts 271°
2026-05-03 23:25 56.06320 -57.11169 35470 ft 451 kts 287°
2026-05-03 23:25 56.07586 -57.16350 35690 ft 453 kts 288°
2026-05-03 23:25 56.08935 -57.21491 35842 ft 456 kts 289°
2026-05-03 23:26 56.10323 -57.26634 35943 ft 459 kts 290°
2026-05-03 23:26 56.11709 -57.31749 35941 ft 464 kts 290°
2026-05-03 23:26 56.14518 -57.42212 35945 ft 464 kts 289°
2026-05-03 23:27 56.17271 -57.52638 35967 ft 464 kts 289°
2026-05-03 23:27 56.20023 -57.63185 35938 ft 467 kts 289°
2026-05-03 23:28 56.22780 -57.73803 35936 ft 468 kts 289°
2026-05-03 23:28 56.25509 -57.84355 35936 ft 467 kts 289°
2026-05-03 23:29 56.28242 -57.94970 35935 ft 467 kts 289°
2026-05-03 23:29 56.30866 -58.05663 35946 ft 464 kts 283°
2026-05-03 23:30 56.32309 -58.16894 35928 ft 458 kts 274°
2026-05-03 23:30 56.33216 -58.28180 35932 ft 457 kts 272°
2026-05-03 23:31 56.34031 -58.39550 35930 ft 456 kts 272°
2026-05-03 23:31 56.34840 -58.50897 35928 ft 455 kts 272°
2026-05-03 23:32 56.35649 -58.62179 35948 ft 455 kts 272°
2026-05-03 23:32 56.36461 -58.73570 35924 ft 459 kts 272°
2026-05-03 23:33 56.37269 -58.85038 35925 ft 460 kts 272°
2026-05-03 23:33 56.38066 -58.96470 35925 ft 460 kts 272°
2026-05-03 23:34 56.38850 -59.07897 35925 ft 460 kts 271°
2026-05-03 23:34 56.39627 -59.19393 35925 ft 460 kts 271°
2026-05-03 23:35 56.40392 -59.30873 35922 ft 460 kts 271°
2026-05-03 23:35 56.41142 -59.42288 35922 ft 460 kts 271°
2026-05-03 23:36 56.41888 -59.53803 35919 ft 459 kts 271°
2026-05-03 23:36 56.42615 -59.65206 35919 ft 459 kts 271°
2026-05-03 23:37 56.43338 -59.76703 35919 ft 459 kts 271°
2026-05-03 23:37 56.44045 -59.88108 35929 ft 459 kts 271°
2026-05-03 23:38 56.44746 -59.99634 35916 ft 462 kts 271°
2026-05-03 23:38 56.45441 -60.11218 35914 ft 462 kts 270°
2026-05-03 23:39 56.46124 -60.22774 35914 ft 462 kts 270°
2026-05-03 23:39 56.46796 -60.34327 35911 ft 462 kts 270°
2026-05-03 23:40 56.47456 -60.45858 35950 ft 462 kts 270°
2026-05-03 23:40 56.48105 -60.57436 35911 ft 466 kts 270°
2026-05-03 23:41 56.48752 -60.69166 35905 ft 468 kts 270°
2026-05-03 23:41 56.49388 -60.80848 35907 ft 468 kts 270°
2026-05-03 23:42 56.50017 -60.92608 35903 ft 467 kts 270°
2026-05-03 23:42 56.50628 -61.04264 35900 ft 467 kts 270°
2026-05-03 23:43 56.51231 -61.16004 35905 ft 470 kts 270°
2026-05-03 23:43 56.51825 -61.27804 35897 ft 472 kts 270°
2026-05-03 23:44 56.52410 -61.39586 35892 ft 470 kts 269°
2026-05-03 23:44 56.52985 -61.51395 35893 ft 470 kts 269°
2026-05-03 23:45 56.53546 -61.63202 35892 ft 470 kts 269°
2026-05-03 23:45 56.54096 -61.75013 35900 ft 471 kts 269°
2026-05-03 23:46 56.54640 -61.86904 35889 ft 474 kts 269°
2026-05-03 23:46 56.55170 -61.98786 35890 ft 474 kts 269°
2026-05-03 23:47 56.55691 -62.10715 35889 ft 474 kts 269°
2026-05-03 23:47 56.56204 -62.22656 35891 ft 474 kts 269°
2026-05-03 23:48 56.56698 -62.34531 35929 ft 474 kts 269°
2026-05-03 23:48 56.57187 -62.46542 35893 ft 480 kts 269°
2026-05-03 23:49 56.57670 -62.58682 35891 ft 481 kts 269°
2026-05-03 23:49 56.58141 -62.70754 35894 ft 481 kts 269°
2026-05-03 23:50 56.58524 -62.80830 35895 ft 481 kts 268°
2026-05-03 23:50 56.59046 -62.94913 35935 ft 479 kts 268°
2026-05-03 23:51 56.59481 -63.07064 35895 ft 485 kts 268°
2026-05-03 23:51 56.59907 -63.19301 35890 ft 486 kts 268°
2026-05-03 23:52 56.60323 -63.31502 35890 ft 486 kts 268°
2026-05-03 23:52 56.60730 -63.43794 35891 ft 486 kts 268°
2026-05-03 23:53 56.61119 -63.55987 35891 ft 486 kts 268°
2026-05-03 23:53 56.61500 -63.68288 35889 ft 489 kts 268°
2026-05-03 23:54 56.61869 -63.80640 35887 ft 490 kts 268°
2026-05-03 23:54 56.62229 -63.93018 35886 ft 490 kts 268°
2026-05-03 23:55 56.62574 -64.05318 35884 ft 490 kts 268°
2026-05-03 23:55 56.62908 -64.17695 35881 ft 490 kts 268°
2026-05-03 23:56 56.63228 -64.30023 35894 ft 492 kts 268°
2026-05-03 23:56 56.63538 -64.42481 35872 ft 493 kts 268°
2026-05-03 23:57 56.63838 -64.54914 35878 ft 492 kts 268°
2026-05-03 23:57 56.64125 -64.67358 35866 ft 492 kts 267°
2026-05-03 23:58 56.64398 -64.79720 35866 ft 492 kts 267°
2026-05-03 23:58 56.64659 -64.92192 35872 ft 494 kts 267°
2026-05-03 23:59 56.64906 -65.04628 35871 ft 495 kts 267°
2026-05-03 23:59 56.65145 -65.17170 35867 ft 495 kts 267°
2026-05-04 00:00 56.65334 -65.27596 35867 ft 495 kts 267°
2026-05-04 00:00 56.65549 -65.40100 35862 ft 495 kts 267°
2026-05-04 00:01 56.65751 -65.52596 35859 ft 495 kts 267°
2026-05-04 00:01 56.65940 -65.65059 35856 ft 495 kts 266°
2026-05-04 00:02 56.66118 -65.77593 35856 ft 495 kts 266°
2026-05-04 00:02 56.66282 -65.90100 35854 ft 494 kts 266°
2026-05-04 00:03 56.66435 -66.02535 35854 ft 493 kts 266°
2026-05-04 00:03 56.66573 -66.15030 35854 ft 494 kts 266°
2026-05-04 00:04 56.66697 -66.27525 35851 ft 496 kts 266°
2026-05-04 00:04 56.66812 -66.40089 35851 ft 496 kts 266°
2026-05-04 00:05 56.66914 -66.52658 35851 ft 496 kts 266°
2026-05-04 00:05 56.67004 -66.65160 35853 ft 496 kts 266°
2026-05-04 00:06 56.67082 -66.77751 35860 ft 497 kts 266°
2026-05-04 00:06 56.67146 -66.90346 35854 ft 498 kts 266°
2026-05-04 00:07 56.66881 -67.02829 35859 ft 494 kts 259°
2026-05-04 00:07 56.65961 -67.15200 35854 ft 493 kts 257°
2026-05-04 00:08 56.64923 -67.27460 35855 ft 493 kts 257°
2026-05-04 00:08 56.63854 -67.39799 35860 ft 493 kts 257°
2026-05-04 00:09 56.62791 -67.52084 35860 ft 495 kts 257°
2026-05-04 00:09 56.61716 -67.64452 35852 ft 495 kts 257°
2026-05-04 00:10 56.60632 -67.76798 35852 ft 495 kts 257°
2026-05-04 00:10 56.59539 -67.89089 35855 ft 495 kts 257°
2026-05-04 00:11 56.58428 -68.01427 35852 ft 495 kts 257°
2026-05-04 00:11 56.57304 -68.13767 35850 ft 496 kts 257°
2026-05-04 00:12 56.56166 -68.26118 35859 ft 497 kts 257°
2026-05-04 00:12 56.55015 -68.38471 35845 ft 496 kts 257°
2026-05-04 00:13 56.53860 -68.50743 35844 ft 496 kts 257°
2026-05-04 00:13 56.52687 -68.63058 35843 ft 496 kts 257°
2026-05-04 00:14 56.51505 -68.75326 35849 ft 496 kts 257°
2026-05-04 00:14 56.50303 -68.87675 35837 ft 497 kts 256°
2026-05-04 00:15 56.49087 -69.00024 35838 ft 497 kts 256°
2026-05-04 00:15 56.47869 -69.12278 35832 ft 497 kts 256°
2026-05-04 00:16 56.46632 -69.24596 35831 ft 497 kts 256°
2026-05-04 00:16 56.45383 -69.36888 35829 ft 497 kts 256°
2026-05-04 00:17 56.44121 -69.49192 35829 ft 497 kts 256°
2026-05-04 00:17 56.42854 -69.61408 35823 ft 497 kts 256°
2026-05-04 00:18 56.41563 -69.73731 35823 ft 497 kts 256°
2026-05-04 00:18 56.40265 -69.86004 35821 ft 497 kts 256°
2026-05-04 00:19 56.38961 -69.98207 35821 ft 497 kts 256°
2026-05-04 00:19 56.37641 -70.10442 35829 ft 497 kts 256°
2026-05-04 00:20 56.36304 -70.22710 35816 ft 498 kts 256°
2026-05-04 00:20 56.34954 -70.34983 35809 ft 498 kts 256°
2026-05-04 00:21 56.33601 -70.47167 35812 ft 497 kts 256°
2026-05-04 00:21 56.32228 -70.59412 35811 ft 497 kts 256°
2026-05-04 00:22 56.30844 -70.71636 35811 ft 497 kts 256°
2026-05-04 00:22 56.29456 -70.83778 35806 ft 498 kts 256°
2026-05-04 00:23 56.28045 -70.96010 35800 ft 498 kts 256°
2026-05-04 00:23 56.26623 -71.08223 35803 ft 498 kts 255°
2026-05-04 00:24 56.25199 -71.20339 35796 ft 498 kts 255°
2026-05-04 00:24 56.23751 -71.32562 35796 ft 498 kts 255°
2026-05-04 00:25 56.22301 -71.44676 35803 ft 497 kts 255°
2026-05-04 00:25 56.20829 -71.56875 35796 ft 498 kts 255°
2026-05-04 00:26 56.19347 -71.69043 35798 ft 498 kts 255°
2026-05-04 00:26 56.17861 -71.81134 35796 ft 498 kts 255°
2026-05-04 00:27 56.16354 -71.93295 35794 ft 498 kts 255°
2026-05-04 00:27 56.14846 -72.05361 35791 ft 498 kts 255°
2026-05-04 00:28 56.13318 -72.17482 35793 ft 498 kts 255°
2026-05-04 00:28 56.11777 -72.29608 35787 ft 498 kts 255°
2026-05-04 00:29 56.10223 -72.41719 35786 ft 497 kts 255°
2026-05-04 00:29 56.08661 -72.53798 35785 ft 497 kts 254°
2026-05-04 00:30 56.07097 -72.65793 35786 ft 497 kts 254°
2026-05-04 00:30 56.05513 -72.77835 35783 ft 497 kts 254°
2026-05-04 00:31 56.03913 -72.89904 35779 ft 498 kts 254°
2026-05-04 00:31 56.02310 -73.01895 35779 ft 498 kts 254°
2026-05-04 00:32 56.00684 -73.13973 35779 ft 498 kts 254°
2026-05-04 00:32 55.99061 -73.25920 35777 ft 498 kts 254°
2026-05-04 00:33 55.96583 -73.43988 35774 ft 497 kts 254°
2026-05-04 00:34 55.94931 -73.55911 35768 ft 497 kts 253°
2026-05-04 00:34 55.93250 -73.67945 35775 ft 497 kts 253°
2026-05-04 00:35 55.91573 -73.79864 35774 ft 497 kts 253°
2026-05-04 00:35 55.89877 -73.91822 35777 ft 497 kts 253°
2026-05-04 00:36 55.88169 -74.03778 35769 ft 497 kts 253°
2026-05-04 00:36 55.86448 -74.15729 35768 ft 498 kts 253°
2026-05-04 00:37 55.84724 -74.27609 35765 ft 498 kts 253°
2026-05-04 00:37 55.82979 -74.39547 35768 ft 498 kts 253°
2026-05-04 00:38 55.81222 -74.51482 35770 ft 497 kts 253°
2026-05-04 00:38 55.79464 -74.63329 35769 ft 497 kts 253°
2026-05-04 00:39 55.77684 -74.75238 35771 ft 497 kts 253°
2026-05-04 00:39 55.75894 -74.87121 35769 ft 498 kts 253°
2026-05-04 00:40 55.74103 -74.98928 35769 ft 498 kts 253°
2026-05-04 00:40 55.72289 -75.10800 35766 ft 497 kts 253°
2026-05-04 00:41 55.70773 -75.20656 35766 ft 497 kts 253°
2026-05-04 00:41 55.68640 -75.34428 35765 ft 497 kts 253°
2026-05-04 00:42 55.67105 -75.44271 35761 ft 497 kts 253°
2026-05-04 00:42 55.65251 -75.56079 35760 ft 496 kts 253°
2026-05-04 00:43 55.63386 -75.67870 35759 ft 496 kts 253°
2026-05-04 00:43 55.61512 -75.79634 35755 ft 496 kts 252°
2026-05-04 00:44 55.59634 -75.91350 35750 ft 496 kts 252°
2026-05-04 00:44 55.57740 -76.03083 35752 ft 496 kts 252°
2026-05-04 00:45 55.55826 -76.14861 35747 ft 497 kts 252°
2026-05-04 00:45 55.53914 -76.26533 35746 ft 497 kts 252°
2026-05-04 00:46 55.51980 -76.38272 35741 ft 496 kts 252°
2026-05-04 00:46 55.50053 -76.49885 35741 ft 495 kts 252°
2026-05-04 00:47 55.48100 -76.61578 35737 ft 495 kts 252°
2026-05-04 00:47 55.46143 -76.73213 35736 ft 495 kts 252°
2026-05-04 00:48 55.44181 -76.84804 35728 ft 495 kts 252°
2026-05-04 00:48 55.42198 -76.96444 35727 ft 495 kts 252°
2026-05-04 00:49 55.40223 -77.07966 35719 ft 495 kts 252°
2026-05-04 00:49 55.38217 -77.19583 35719 ft 495 kts 252°
2026-05-04 00:50 55.36213 -77.31122 35708 ft 495 kts 252°
2026-05-04 00:50 55.34188 -77.42703 35713 ft 495 kts 252°
2026-05-04 00:51 55.32155 -77.54257 35709 ft 495 kts 252°
2026-05-04 00:51 55.30106 -77.65826 35709 ft 495 kts 252°
2026-05-04 00:52 55.28062 -77.77302 35707 ft 495 kts 252°
2026-05-04 00:52 55.26109 -77.88905 35706 ft 495 kts 253°
2026-05-04 00:53 55.24211 -78.00513 35704 ft 495 kts 253°
2026-05-04 00:53 55.22287 -78.12119 35702 ft 495 kts 253°
2026-05-04 00:54 55.20349 -78.23630 35704 ft 495 kts 253°
2026-05-04 00:54 55.18386 -78.35171 35699 ft 494 kts 253°
2026-05-04 00:55 55.16419 -78.46666 35698 ft 494 kts 252°
2026-05-04 00:55 55.14430 -78.58215 35694 ft 494 kts 252°
2026-05-04 00:56 55.12450 -78.69638 35693 ft 494 kts 252°
2026-05-04 00:56 55.10445 -78.81136 35694 ft 494 kts 252°
2026-05-04 00:57 55.08430 -78.92619 35696 ft 494 kts 252°
2026-05-04 00:57 55.06404 -79.04087 35689 ft 494 kts 252°
2026-05-04 00:58 55.04379 -79.15485 35687 ft 494 kts 252°
2026-05-04 00:58 55.02326 -79.26958 35689 ft 493 kts 252°
2026-05-04 00:59 55.00285 -79.38302 35688 ft 493 kts 252°
2026-05-04 00:59 54.98219 -79.49711 35688 ft 493 kts 252°
2026-05-04 01:00 54.96146 -79.61085 35691 ft 493 kts 252°
2026-05-04 01:00 54.94061 -79.72456 35692 ft 493 kts 252°
2026-05-04 01:01 54.91977 -79.83753 35688 ft 493 kts 252°
2026-05-04 01:01 54.89867 -79.95128 35682 ft 493 kts 252°
2026-05-04 01:02 54.87739 -80.06408 35685 ft 493 kts 251°
2026-05-04 01:02 54.85471 -80.17654 35679 ft 493 kts 250°
2026-05-04 01:03 54.83179 -80.28834 35678 ft 492 kts 250°
2026-05-04 01:03 54.80892 -80.40028 35678 ft 492 kts 250°
2026-05-04 01:04 54.78599 -80.51249 35676 ft 492 kts 250°
2026-05-04 01:04 54.76316 -80.62383 35675 ft 492 kts 250°
2026-05-04 01:05 54.74008 -80.73568 35674 ft 492 kts 250°
2026-05-04 01:05 54.71701 -80.84683 35675 ft 492 kts 250°
2026-05-04 01:06 54.69369 -80.95853 35670 ft 493 kts 250°
2026-05-04 01:06 54.67029 -81.07001 35667 ft 493 kts 250°
2026-05-04 01:07 54.64681 -81.18128 35664 ft 492 kts 250°
2026-05-04 01:07 54.62336 -81.29179 35665 ft 492 kts 250°
2026-05-04 01:08 54.59968 -81.40279 35661 ft 492 kts 250°
2026-05-04 01:08 54.57592 -81.51353 35661 ft 492 kts 250°
2026-05-04 01:09 54.55219 -81.62356 35652 ft 492 kts 250°
2026-05-04 01:09 54.52825 -81.73397 35654 ft 492 kts 249°
2026-05-04 01:10 54.50418 -81.84434 35653 ft 492 kts 249°
2026-05-04 01:10 54.48016 -81.95397 35648 ft 492 kts 249°
2026-05-04 01:11 54.45585 -82.06428 35649 ft 492 kts 249°
2026-05-04 01:11 54.43165 -82.17352 35648 ft 492 kts 249°
2026-05-04 01:12 54.40718 -82.28343 35645 ft 492 kts 249°
2026-05-04 01:12 54.38272 -82.39270 35645 ft 491 kts 249°
2026-05-04 01:13 54.35810 -82.50211 35646 ft 492 kts 249°
2026-05-04 01:13 54.33345 -82.61104 35640 ft 491 kts 249°
2026-05-04 01:14 54.30861 -82.72031 35638 ft 491 kts 249°
2026-05-04 01:14 54.28371 -82.82923 35633 ft 491 kts 249°
2026-05-04 01:15 54.25866 -82.93831 35636 ft 492 kts 249°
2026-05-04 01:15 54.23364 -83.04663 35628 ft 492 kts 249°
2026-05-04 01:16 54.20831 -83.15579 35627 ft 492 kts 249°
2026-05-04 01:16 54.18306 -83.26403 35628 ft 493 kts 248°
2026-05-04 01:17 54.15753 -83.37292 35627 ft 493 kts 248°
2026-05-04 01:17 54.13192 -83.48158 35626 ft 493 kts 248°
2026-05-04 01:18 54.10637 -83.58947 35624 ft 493 kts 248°
2026-05-04 01:18 54.08061 -83.69768 35621 ft 493 kts 248°
2026-05-04 01:19 54.05469 -83.80601 35630 ft 492 kts 248°
2026-05-04 01:19 54.02886 -83.91343 35629 ft 492 kts 248°
2026-05-04 01:20 54.00286 -84.02107 35629 ft 492 kts 248°
2026-05-04 01:20 53.97668 -84.12888 35626 ft 492 kts 248°
2026-05-04 01:21 53.95044 -84.23642 35626 ft 492 kts 248°
2026-05-04 01:21 53.92412 -84.34374 35624 ft 492 kts 248°
2026-05-04 01:22 53.89785 -84.45035 35619 ft 492 kts 248°
2026-05-04 01:22 53.87129 -84.55760 35618 ft 492 kts 248°
2026-05-04 01:23 53.84480 -84.66409 35619 ft 492 kts 248°
2026-05-04 01:23 53.82260 -84.75289 35621 ft 492 kts 248°
2026-05-04 01:24 53.79579 -84.85972 35611 ft 492 kts 248°
2026-05-04 01:24 53.76895 -84.96610 35611 ft 492 kts 248°
2026-05-04 01:25 53.74218 -85.07174 35609 ft 492 kts 248°
2026-05-04 01:25 53.71512 -85.17800 35609 ft 492 kts 247°
2026-05-04 01:26 53.68798 -85.28407 35607 ft 492 kts 247°
2026-05-04 01:26 53.66088 -85.38950 35609 ft 492 kts 247°
2026-05-04 01:27 53.63353 -85.49539 35605 ft 491 kts 247°
2026-05-04 01:27 53.60631 -85.60030 35606 ft 491 kts 247°
2026-05-04 01:28 53.57883 -85.70568 35603 ft 491 kts 247°
2026-05-04 01:28 53.55129 -85.81084 35603 ft 491 kts 247°
2026-05-04 01:29 53.52361 -85.91602 35598 ft 490 kts 247°
2026-05-04 01:29 53.49591 -86.02080 35600 ft 490 kts 247°
2026-05-04 01:30 53.46833 -86.12462 35600 ft 490 kts 247°
2026-05-04 01:30 53.44042 -86.22925 35600 ft 490 kts 247°
2026-05-04 01:31 53.41244 -86.33364 35599 ft 490 kts 247°
2026-05-04 01:31 53.38441 -86.43775 35593 ft 490 kts 247°
2026-05-04 01:32 53.35650 -86.54091 35595 ft 489 kts 247°
2026-05-04 01:32 53.32826 -86.64484 35595 ft 488 kts 246°
2026-05-04 01:33 53.30011 -86.74799 35586 ft 488 kts 246°
2026-05-04 01:33 53.27175 -86.85146 35586 ft 488 kts 246°
2026-05-04 01:34 53.24350 -86.95404 35577 ft 488 kts 246°
2026-05-04 01:34 53.21499 -87.05708 35576 ft 488 kts 246°
2026-05-04 01:35 53.18659 -87.15931 35580 ft 487 kts 246°
2026-05-04 01:35 53.15798 -87.26183 35581 ft 486 kts 246°
2026-05-04 01:36 53.12933 -87.36404 35577 ft 486 kts 246°
2026-05-04 01:36 53.10057 -87.46621 35570 ft 486 kts 246°
2026-05-04 01:37 53.07196 -87.56737 35563 ft 485 kts 246°
2026-05-04 01:37 53.04315 -87.66883 35569 ft 485 kts 246°
2026-05-04 01:38 53.01420 -87.77033 35577 ft 485 kts 246°
2026-05-04 01:38 52.98533 -87.87111 35565 ft 485 kts 246°
2026-05-04 01:39 52.95628 -87.97212 35573 ft 484 kts 246°
2026-05-04 01:39 52.92736 -88.07220 35569 ft 482 kts 246°
2026-05-04 01:40 52.89823 -88.17261 35569 ft 482 kts 246°
2026-05-04 01:40 52.86908 -88.27267 35559 ft 482 kts 246°
2026-05-04 01:41 52.83988 -88.37250 35569 ft 482 kts 246°
2026-05-04 01:41 52.81073 -88.47170 35562 ft 482 kts 246°
2026-05-04 01:42 52.78126 -88.57156 35566 ft 481 kts 246°
2026-05-04 01:42 52.75180 -88.67098 35546 ft 481 kts 246°
2026-05-04 01:43 52.72254 -88.76934 35562 ft 479 kts 246°
2026-05-04 01:43 52.69307 -88.86796 35557 ft 479 kts 246°
2026-05-04 01:44 52.66348 -88.96663 35554 ft 479 kts 246°
2026-05-04 01:44 52.63381 -89.06513 35549 ft 479 kts 246°
2026-05-04 01:45 52.60431 -89.16266 35549 ft 478 kts 246°
2026-05-04 01:45 52.55960 -89.30973 35543 ft 478 kts 245°
2026-05-04 01:46 52.52984 -89.40715 35540 ft 478 kts 245°
2026-05-04 01:46 52.49983 -89.50494 35539 ft 478 kts 245°
2026-05-04 01:47 52.46992 -89.60205 35542 ft 478 kts 245°
2026-05-04 01:47 52.43982 -89.69935 35532 ft 478 kts 245°
2026-05-04 01:48 52.40982 -89.79598 35535 ft 478 kts 245°
2026-05-04 01:48 52.37947 -89.89334 35537 ft 478 kts 245°
2026-05-04 01:49 52.34912 -89.99030 35535 ft 478 kts 245°
2026-05-04 01:49 52.31890 -90.08644 35528 ft 476 kts 245°
2026-05-04 01:50 52.28852 -90.18273 35528 ft 475 kts 245°
2026-05-04 01:50 52.25834 -90.27801 35522 ft 474 kts 245°
2026-05-04 01:51 52.22800 -90.37343 35525 ft 473 kts 245°
2026-05-04 01:51 52.19756 -90.46878 35515 ft 473 kts 245°
2026-05-04 01:52 52.16729 -90.56325 35505 ft 471 kts 245°
2026-05-04 01:52 52.13695 -90.65754 35513 ft 469 kts 245°
2026-05-04 01:53 52.10647 -90.75195 35515 ft 469 kts 245°
2026-05-04 01:53 52.07611 -90.84561 35505 ft 469 kts 245°
2026-05-04 01:54 52.04569 -90.93912 35500 ft 469 kts 245°
2026-05-04 01:54 52.01505 -91.03288 35486 ft 464 kts 245°
2026-05-04 01:55 51.98505 -91.12432 35491 ft 461 kts 245°
2026-05-04 01:55 51.95487 -91.21610 35475 ft 460 kts 245°
2026-05-04 01:56 51.92463 -91.30768 35475 ft 460 kts 245°
2026-05-04 01:56 51.89428 -91.39926 35467 ft 460 kts 245°
2026-05-04 01:57 51.86404 -91.49012 35466 ft 460 kts 245°
2026-05-04 01:57 51.83359 -91.58129 35459 ft 460 kts 245°
2026-05-04 01:58 51.80303 -91.67246 35456 ft 460 kts 244°
2026-05-04 01:58 51.77266 -91.76273 35446 ft 458 kts 245°
2026-05-04 01:59 51.74211 -91.85320 35446 ft 457 kts 245°
2026-05-04 01:59 51.71175 -91.94279 35435 ft 457 kts 244°
2026-05-04 02:00 51.68114 -92.03281 35441 ft 457 kts 244°
2026-05-04 02:00 51.65049 -92.12262 35442 ft 456 kts 244°
2026-05-04 02:01 51.61987 -92.21202 35434 ft 456 kts 244°
2026-05-04 02:01 51.58936 -92.30079 35434 ft 456 kts 244°
2026-05-04 02:02 51.55855 -92.39008 35429 ft 456 kts 244°
2026-05-04 02:02 51.52768 -92.47928 35428 ft 456 kts 244°
2026-05-04 02:03 51.49675 -92.56832 35423 ft 456 kts 244°
2026-05-04 02:03 51.46589 -92.65684 35422 ft 456 kts 244°
2026-05-04 02:04 51.43480 -92.74569 35421 ft 456 kts 244°
2026-05-04 02:04 51.40381 -92.83395 35421 ft 456 kts 244°
2026-05-04 02:05 51.37780 -92.90777 35420 ft 456 kts 244°
2026-05-04 02:05 51.34135 -93.01092 35420 ft 457 kts 244°
2026-05-04 02:06 51.31510 -93.08492 35409 ft 457 kts 244°
2026-05-04 02:06 51.28383 -93.17279 35397 ft 457 kts 244°
2026-05-04 02:07 51.25235 -93.26095 35402 ft 456 kts 244°
2026-05-04 02:07 51.22093 -93.34864 35401 ft 456 kts 244°
2026-05-04 02:08 51.18937 -93.43641 35395 ft 455 kts 244°
2026-05-04 02:08 51.15783 -93.52384 35396 ft 455 kts 244°
2026-05-04 02:09 51.12639 -93.61071 35391 ft 455 kts 244°
2026-05-04 02:09 51.09470 -93.69794 35400 ft 455 kts 244°
2026-05-04 02:10 51.05836 -93.78126 35319 ft 462 kts 233°
2026-05-04 02:10 51.01428 -93.85631 35316 ft 465 kts 231°
2026-05-04 02:11 50.96911 -93.92918 35323 ft 465 kts 230°
2026-05-04 02:11 50.92360 -94.00210 35340 ft 465 kts 230°
2026-05-04 02:12 50.87808 -94.07528 35372 ft 465 kts 231°
2026-05-04 02:12 50.83263 -94.14838 35395 ft 465 kts 231°
2026-05-04 02:13 50.78731 -94.22112 35401 ft 465 kts 231°
2026-05-04 02:13 50.74194 -94.29367 35410 ft 463 kts 231°
2026-05-04 02:14 50.69685 -94.36558 35419 ft 462 kts 231°
2026-05-04 02:14 50.65155 -94.43764 35418 ft 463 kts 231°
2026-05-04 02:15 50.60614 -94.50967 35426 ft 463 kts 230°
2026-05-04 02:15 50.56054 -94.58177 35425 ft 463 kts 230°
2026-05-04 02:16 50.51540 -94.65290 35419 ft 459 kts 231°
2026-05-04 02:16 50.47042 -94.72358 35437 ft 459 kts 231°
2026-05-04 02:17 50.42512 -94.79460 35434 ft 459 kts 231°
2026-05-04 02:17 50.37985 -94.86538 35442 ft 459 kts 231°
2026-05-04 02:18 50.33478 -94.93562 35443 ft 459 kts 231°
2026-05-04 02:18 50.28947 -95.00603 35451 ft 458 kts 231°
2026-05-04 02:19 50.24438 -95.07588 35445 ft 457 kts 231°
2026-05-04 02:19 50.19922 -95.14567 35461 ft 456 kts 231°
2026-05-04 02:20 50.15405 -95.21528 35459 ft 456 kts 231°
2026-05-04 02:20 50.10899 -95.28454 35465 ft 456 kts 231°
2026-05-04 02:21 50.06370 -95.35393 35444 ft 455 kts 231°
2026-05-04 02:21 50.01851 -95.42296 35452 ft 453 kts 231°
2026-05-04 02:22 49.97344 -95.49165 35440 ft 453 kts 231°
2026-05-04 02:22 49.92859 -95.55981 35443 ft 452 kts 231°
2026-05-04 02:23 49.88356 -95.62806 35436 ft 452 kts 231°
2026-05-04 02:23 49.83850 -95.69616 35427 ft 452 kts 231°
2026-05-04 02:24 49.79332 -95.76425 35423 ft 452 kts 231°
2026-05-04 02:24 49.74854 -95.83155 35423 ft 452 kts 231°
2026-05-04 02:25 49.70337 -95.89927 35416 ft 452 kts 231°
2026-05-04 02:25 49.65815 -95.96688 35426 ft 452 kts 231°
2026-05-04 02:26 49.61304 -96.03412 35423 ft 453 kts 231°
2026-05-04 02:26 49.56757 -96.10172 35417 ft 453 kts 231°
2026-05-04 02:27 49.52227 -96.16889 35428 ft 453 kts 231°
2026-05-04 02:27 49.47661 -96.23640 35429 ft 453 kts 231°
2026-05-04 02:28 49.43130 -96.30321 35439 ft 454 kts 231°
2026-05-04 02:28 49.38559 -96.37044 35443 ft 454 kts 231°
2026-05-04 02:29 49.34014 -96.43710 35437 ft 454 kts 231°
2026-05-04 02:29 49.29431 -96.50414 35463 ft 455 kts 231°
2026-05-04 02:30 49.24845 -96.57105 35462 ft 455 kts 231°
2026-05-04 02:30 49.20274 -96.63755 35469 ft 455 kts 231°
2026-05-04 02:31 49.15678 -96.70422 35471 ft 455 kts 231°
2026-05-04 02:31 49.11070 -96.77089 35477 ft 455 kts 231°
2026-05-04 02:32 49.06459 -96.83746 35463 ft 456 kts 231°
2026-05-04 02:32 49.01845 -96.90387 35459 ft 457 kts 231°
2026-05-04 02:33 48.97229 -96.97012 35450 ft 457 kts 231°
2026-05-04 02:33 48.92590 -97.03653 35418 ft 457 kts 231°
2026-05-04 02:34 48.88111 -97.10486 35687 ft 449 kts 238°
2026-05-04 02:34 48.86319 -97.14244 36021 ft 441 kts 245°
2026-05-04 02:34 48.84817 -97.18302 36188 ft 440 kts 248°
2026-05-04 02:35 48.83426 -97.22448 36366 ft 441 kts 250°
2026-05-04 02:35 48.82082 -97.26639 36595 ft 441 kts 250°
2026-05-04 02:35 48.80751 -97.30870 36826 ft 442 kts 250°
2026-05-04 02:35 48.79428 -97.35079 37042 ft 443 kts 250°
2026-05-04 02:36 48.78108 -97.39257 37226 ft 444 kts 250°
2026-05-04 02:36 48.76760 -97.43493 37402 ft 446 kts 250°
2026-05-04 02:36 48.74035 -97.51981 37481 ft 450 kts 250°
2026-05-04 02:37 48.71275 -97.60504 37482 ft 450 kts 250°
2026-05-04 02:37 48.68518 -97.68987 37487 ft 450 kts 249°
2026-05-04 02:38 48.65745 -97.77499 37490 ft 450 kts 249°
2026-05-04 02:38 48.62967 -97.86002 37494 ft 450 kts 250°
2026-05-04 02:39 48.60190 -97.94474 37493 ft 449 kts 250°
2026-05-04 02:39 48.57428 -98.02872 37500 ft 449 kts 250°
2026-05-04 02:40 48.54633 -98.11344 37502 ft 449 kts 250°
2026-05-04 02:40 48.51849 -98.19754 37510 ft 449 kts 249°
2026-05-04 02:41 48.49065 -98.28136 37508 ft 449 kts 249°
2026-05-04 02:41 48.46258 -98.36556 37517 ft 449 kts 249°
2026-05-04 02:42 48.43443 -98.44976 37518 ft 449 kts 249°
2026-05-04 02:42 48.40641 -98.53328 37517 ft 449 kts 249°
2026-05-04 02:43 48.37814 -98.61728 37509 ft 449 kts 249°
2026-05-04 02:43 48.34989 -98.70092 37510 ft 447 kts 249°
2026-05-04 02:44 48.32189 -98.78356 37504 ft 446 kts 249°
2026-05-04 02:44 48.29366 -98.86663 37498 ft 445 kts 249°
2026-05-04 02:45 48.26545 -98.94939 37495 ft 445 kts 249°
2026-05-04 02:45 48.23722 -99.03195 37490 ft 445 kts 249°
2026-05-04 02:46 48.20883 -99.11465 37498 ft 443 kts 249°
2026-05-04 02:46 48.18531 -99.18300 37503 ft 443 kts 249°
2026-05-04 02:47 48.15239 -99.27838 37511 ft 443 kts 249°
2026-05-04 02:47 48.12863 -99.34699 37522 ft 443 kts 249°
2026-05-04 02:48 48.10029 -99.42859 37514 ft 443 kts 249°
2026-05-04 02:48 48.07177 -99.51042 37535 ft 442 kts 249°
2026-05-04 02:49 48.04350 -99.59129 37537 ft 441 kts 249°
2026-05-04 02:49 48.01497 -99.67269 37539 ft 441 kts 249°
2026-05-04 02:50 47.98644 -99.75380 37532 ft 440 kts 249°
2026-05-04 02:50 47.95787 -99.83480 37530 ft 440 kts 249°
2026-05-04 02:51 47.92942 -99.91520 37540 ft 439 kts 249°
2026-05-04 02:51 47.90082 -99.99578 37552 ft 439 kts 249°
2026-05-04 02:52 47.87227 -100.07596 37546 ft 439 kts 249°
2026-05-04 02:52 47.84351 -100.15650 37548 ft 439 kts 249°
2026-05-04 02:53 47.81467 -100.23698 37546 ft 437 kts 249°
2026-05-04 02:53 47.78620 -100.31614 37549 ft 435 kts 249°
2026-05-04 02:54 47.75755 -100.39569 37549 ft 435 kts 249°
2026-05-04 02:54 47.72890 -100.47498 37554 ft 435 kts 249°
2026-05-04 02:55 47.68600 -100.59323 37553 ft 434 kts 248°
2026-05-04 02:56 47.65729 -100.67200 37562 ft 432 kts 248°
2026-05-04 02:56 47.62881 -100.74995 37564 ft 432 kts 248°
2026-05-04 02:57 47.60007 -100.82841 37568 ft 432 kts 248°
2026-05-04 02:57 47.57131 -100.90670 37566 ft 432 kts 248°
2026-05-04 02:58 47.54268 -100.98438 37590 ft 432 kts 248°
2026-05-04 02:58 47.51377 -101.06264 37592 ft 433 kts 248°
2026-05-04 02:59 47.48495 -101.14038 37592 ft 433 kts 248°
2026-05-04 02:59 47.45588 -101.21856 37596 ft 433 kts 248°
2026-05-04 03:00 47.42669 -101.29688 37594 ft 436 kts 248°
2026-05-04 03:00 47.39733 -101.37541 37601 ft 436 kts 248°
2026-05-04 03:01 47.36812 -101.45328 37602 ft 436 kts 248°
2026-05-04 03:01 47.33861 -101.53170 37599 ft 437 kts 248°
2026-05-04 03:02 47.30906 -101.61002 37599 ft 437 kts 248°
2026-05-04 03:02 47.27936 -101.68850 37599 ft 437 kts 248°
2026-05-04 03:03 47.24978 -101.76644 37608 ft 436 kts 247°
2026-05-04 03:03 47.22024 -101.84407 37607 ft 436 kts 247°
2026-05-04 03:04 47.19037 -101.92231 37597 ft 437 kts 247°
2026-05-04 03:04 47.16075 -101.99969 37616 ft 437 kts 247°
2026-05-04 03:05 47.13080 -102.07772 37622 ft 438 kts 247°
2026-05-04 03:05 47.10078 -102.15571 37623 ft 438 kts 247°
2026-05-04 03:06 47.07090 -102.23308 37623 ft 438 kts 247°
2026-05-04 03:06 47.04078 -102.31086 37630 ft 438 kts 247°
2026-05-04 03:07 47.01062 -102.38852 37610 ft 438 kts 247°
2026-05-04 03:07 46.98038 -102.46617 37641 ft 438 kts 246°
2026-05-04 03:08 46.95028 -102.54322 37643 ft 438 kts 246°
2026-05-04 03:08 46.91995 -102.62066 37652 ft 438 kts 246°
2026-05-04 03:09 46.88971 -102.69765 37654 ft 438 kts 246°
2026-05-04 03:09 46.85923 -102.77505 37656 ft 441 kts 246°
2026-05-04 03:10 46.82809 -102.85286 37657 ft 444 kts 245°
2026-05-04 03:10 46.79658 -102.93012 37656 ft 444 kts 245°
2026-05-04 03:11 46.76508 -103.00720 37658 ft 444 kts 245°
2026-05-04 03:11 46.73349 -103.08453 37660 ft 444 kts 245°
2026-05-04 03:12 46.70176 -103.16213 37687 ft 445 kts 245°
2026-05-04 03:12 46.66999 -103.23961 37689 ft 446 kts 245°
2026-05-04 03:13 46.63829 -103.31666 37691 ft 446 kts 245°
2026-05-04 03:13 46.60634 -103.39411 37696 ft 446 kts 245°
2026-05-04 03:14 46.57426 -103.47164 37693 ft 448 kts 245°
2026-05-04 03:14 46.54209 -103.54927 37708 ft 451 kts 245°
2026-05-04 03:15 46.50955 -103.62747 37708 ft 452 kts 244°
2026-05-04 03:15 46.47697 -103.70553 37720 ft 452 kts 244°
2026-05-04 03:16 46.44451 -103.78309 37720 ft 452 kts 244°
2026-05-04 03:16 46.41186 -103.86092 37724 ft 452 kts 244°
2026-05-04 03:17 46.37918 -103.93859 37733 ft 453 kts 244°
2026-05-04 03:17 46.34628 -104.01656 37741 ft 453 kts 244°
2026-05-04 03:18 46.31334 -104.09441 37757 ft 453 kts 244°
2026-05-04 03:18 46.28033 -104.17222 37758 ft 455 kts 244°
2026-05-04 03:19 46.24726 -104.24996 37755 ft 457 kts 244°
2026-05-04 03:19 46.21382 -104.32832 37757 ft 457 kts 243°
2026-05-04 03:20 46.18055 -104.40606 37759 ft 457 kts 243°
2026-05-04 03:20 46.14701 -104.48420 37743 ft 457 kts 243°
2026-05-04 03:21 46.11330 -104.56256 37762 ft 460 kts 243°
2026-05-04 03:21 46.07949 -104.64091 37767 ft 460 kts 243°
2026-05-04 03:22 46.04580 -104.71877 37767 ft 460 kts 243°
2026-05-04 03:22 46.01179 -104.79713 37770 ft 460 kts 243°
2026-05-04 03:23 45.97793 -104.87497 37770 ft 464 kts 242°
2026-05-04 03:23 45.94354 -104.95382 37772 ft 466 kts 242°
2026-05-04 03:24 45.90893 -105.03289 37765 ft 466 kts 242°
2026-05-04 03:24 45.87448 -105.11135 37774 ft 466 kts 242°
2026-05-04 03:25 45.83978 -105.19021 37770 ft 467 kts 242°
2026-05-04 03:25 45.80493 -105.26919 37780 ft 468 kts 242°
2026-05-04 03:26 45.77005 -105.34801 37779 ft 468 kts 242°
2026-05-04 03:26 45.73520 -105.42652 37787 ft 468 kts 242°
2026-05-04 03:27 45.70012 -105.50533 37778 ft 468 kts 242°
2026-05-04 03:27 45.66529 -105.58337 37786 ft 468 kts 242°
2026-05-04 03:28 45.63017 -105.66186 37795 ft 468 kts 242°
2026-05-04 03:28 45.59505 -105.74013 37796 ft 468 kts 242°
2026-05-04 03:29 45.56579 -105.80517 37784 ft 468 kts 241°
2026-05-04 03:29 45.52459 -105.89652 37806 ft 471 kts 241°
2026-05-04 03:30 45.49480 -105.96236 37806 ft 471 kts 241°
2026-05-04 03:30 45.45945 -106.04029 37808 ft 471 kts 241°
2026-05-04 03:31 45.42380 -106.11867 37792 ft 471 kts 240°
2026-05-04 03:31 45.38806 -106.19703 37809 ft 471 kts 240°
2026-05-04 03:32 45.35241 -106.27497 37808 ft 471 kts 240°
2026-05-04 03:32 45.31652 -106.35325 37808 ft 471 kts 240°
2026-05-04 03:33 45.28085 -106.43082 37799 ft 471 kts 240°
2026-05-04 03:33 45.24491 -106.50874 37812 ft 470 kts 239°
2026-05-04 03:34 45.20914 -106.58609 37818 ft 470 kts 239°
2026-05-04 03:34 45.17320 -106.66362 37816 ft 470 kts 239°
2026-05-04 03:35 45.13723 -106.74099 37800 ft 470 kts 239°
2026-05-04 03:35 45.10151 -106.81763 37821 ft 468 kts 239°
2026-05-04 03:36 45.06543 -106.89480 37818 ft 467 kts 238°
2026-05-04 03:36 45.02963 -106.97119 37823 ft 467 kts 238°
2026-05-04 03:37 44.99355 -107.04798 37841 ft 467 kts 238°
2026-05-04 03:37 44.95768 -107.12412 37847 ft 468 kts 238°
2026-05-04 03:38 44.92154 -107.20061 37847 ft 468 kts 238°
2026-05-04 03:38 44.88530 -107.27712 37847 ft 468 kts 238°
2026-05-04 03:39 44.84922 -107.35308 37846 ft 468 kts 238°
2026-05-04 03:39 44.81282 -107.42952 37857 ft 469 kts 238°
2026-05-04 03:40 44.77632 -107.50595 37857 ft 470 kts 238°
2026-05-04 03:40 44.73983 -107.58217 37852 ft 470 kts 238°
2026-05-04 03:41 44.70349 -107.65788 37855 ft 470 kts 238°
2026-05-04 03:41 44.66665 -107.73443 37839 ft 471 kts 238°
2026-05-04 03:42 44.62996 -107.81045 37821 ft 471 kts 238°
2026-05-04 03:42 44.59331 -107.88620 37836 ft 471 kts 238°
2026-05-04 03:43 44.55634 -107.96240 37838 ft 471 kts 238°
2026-05-04 03:43 44.51932 -108.03852 37841 ft 472 kts 238°
2026-05-04 03:44 44.48241 -108.11421 37843 ft 472 kts 238°
2026-05-04 03:44 44.44526 -108.19019 37839 ft 472 kts 238°
2026-05-04 03:45 44.40802 -108.26614 37828 ft 472 kts 238°
2026-05-04 03:45 44.37097 -108.34152 37819 ft 473 kts 237°
2026-05-04 03:46 44.33356 -108.41742 37815 ft 473 kts 237°
2026-05-04 03:46 44.29617 -108.49307 37809 ft 473 kts 237°
2026-05-04 03:47 44.25891 -108.56829 37821 ft 473 kts 237°
2026-05-04 03:47 44.22141 -108.64379 37822 ft 473 kts 237°
2026-05-04 03:48 44.18408 -108.71877 37827 ft 473 kts 237°
2026-05-04 03:48 44.14648 -108.79406 37826 ft 473 kts 237°
2026-05-04 03:49 44.10884 -108.86927 37824 ft 473 kts 237°
2026-05-04 03:49 44.07132 -108.94403 37832 ft 473 kts 237°
2026-05-04 03:50 44.03351 -109.01918 37847 ft 473 kts 237°
2026-05-04 03:50 43.99581 -109.09391 37870 ft 473 kts 237°
2026-05-04 03:51 43.95797 -109.16874 37869 ft 473 kts 237°
2026-05-04 03:51 43.92002 -109.24359 37904 ft 473 kts 237°
2026-05-04 03:52 43.88207 -109.31825 37900 ft 473 kts 237°
2026-05-04 03:52 43.84430 -109.39234 37914 ft 473 kts 237°
2026-05-04 03:53 43.80618 -109.46695 37930 ft 473 kts 237°
2026-05-04 03:53 43.76829 -109.54094 37936 ft 473 kts 236°
2026-05-04 03:54 43.73015 -109.61521 37936 ft 473 kts 236°
2026-05-04 03:54 43.69192 -109.68945 37948 ft 473 kts 236°
2026-05-04 03:55 43.65360 -109.76369 37943 ft 474 kts 236°
2026-05-04 03:55 43.61549 -109.83736 37959 ft 473 kts 236°
2026-05-04 03:56 43.57711 -109.91133 38026 ft 473 kts 236°
2026-05-04 03:56 43.53873 -109.98512 37997 ft 473 kts 236°
2026-05-04 03:57 43.50051 -110.05845 37987 ft 473 kts 236°
2026-05-04 03:57 43.46195 -110.13221 37969 ft 474 kts 236°
2026-05-04 03:58 43.40403 -110.24268 37956 ft 474 kts 236°
2026-05-04 03:58 43.36528 -110.31637 37954 ft 474 kts 236°
2026-05-04 03:59 43.32676 -110.38942 37953 ft 474 kts 236°
2026-05-04 03:59 43.28804 -110.46267 37953 ft 473 kts 236°
2026-05-04 04:00 43.24940 -110.53558 37954 ft 472 kts 236°
2026-05-04 04:00 43.21089 -110.60808 37951 ft 472 kts 236°
2026-05-04 04:01 43.17215 -110.68086 37942 ft 471 kts 236°
2026-05-04 04:01 43.13354 -110.75319 37940 ft 471 kts 236°
2026-05-04 04:02 43.09474 -110.82571 37936 ft 471 kts 236°
2026-05-04 04:02 43.05611 -110.89772 37924 ft 471 kts 236°
2026-05-04 04:03 43.01725 -110.96998 37922 ft 471 kts 235°
2026-05-04 04:03 42.97837 -111.04212 37913 ft 469 kts 235°
2026-05-04 04:04 42.93963 -111.11383 37915 ft 469 kts 235°
2026-05-04 04:04 42.90076 -111.18558 37902 ft 469 kts 235°
2026-05-04 04:05 42.86209 -111.25680 37941 ft 469 kts 235°
2026-05-04 04:05 42.82312 -111.32841 37916 ft 469 kts 235°
2026-05-04 04:06 42.78412 -111.39990 37899 ft 469 kts 235°
2026-05-04 04:06 42.74535 -111.47079 37880 ft 469 kts 235°
2026-05-04 04:07 42.70633 -111.54198 37876 ft 469 kts 235°
2026-05-04 04:07 42.66716 -111.61328 37872 ft 469 kts 235°
2026-05-04 04:08 42.62800 -111.68437 37873 ft 469 kts 234°
2026-05-04 04:08 42.58884 -111.75532 37872 ft 469 kts 234°
2026-05-04 04:09 42.54980 -111.82586 37860 ft 469 kts 234°
2026-05-04 04:09 42.51047 -111.89675 37861 ft 469 kts 234°
2026-05-04 04:10 42.47133 -111.96715 37850 ft 469 kts 234°
2026-05-04 04:10 42.43185 -112.03799 37848 ft 469 kts 234°
2026-05-04 04:11 42.39250 -112.10843 37840 ft 468 kts 234°
2026-05-04 04:11 42.35984 -112.16676 37840 ft 468 kts 234°
2026-05-04 04:12 42.31397 -112.24852 37827 ft 469 kts 234°
2026-05-04 04:12 42.28111 -112.30692 37831 ft 469 kts 234°
2026-05-04 04:13 42.24149 -112.37721 37826 ft 469 kts 234°
2026-05-04 04:13 42.20188 -112.44734 37827 ft 469 kts 234°
2026-05-04 04:14 42.16182 -112.51664 37826 ft 469 kts 232°
2026-05-04 04:14 42.12090 -112.58536 37827 ft 470 kts 232°
2026-05-04 04:15 42.08029 -112.65347 37826 ft 469 kts 232°
2026-05-04 04:15 42.03949 -112.72209 37829 ft 469 kts 232°
2026-05-04 04:16 41.99871 -112.79067 37827 ft 469 kts 232°
2026-05-04 04:16 41.95783 -112.85930 37825 ft 470 kts 232°
2026-05-04 04:17 41.91705 -112.92758 37826 ft 470 kts 232°
2026-05-04 04:17 41.87598 -112.99618 37826 ft 471 kts 232°
2026-05-04 04:18 41.83488 -113.06468 37820 ft 470 kts 231°
2026-05-04 04:18 41.79382 -113.13295 37823 ft 468 kts 231°
2026-05-04 04:19 41.75297 -113.20072 37821 ft 468 kts 231°
2026-05-04 04:19 41.71227 -113.26809 37813 ft 468 kts 231°
2026-05-04 04:20 41.67124 -113.33586 37812 ft 468 kts 231°
2026-05-04 04:20 41.63015 -113.40356 37814 ft 468 kts 231°
2026-05-04 04:21 41.58923 -113.47084 37813 ft 469 kts 231°
2026-05-04 04:21 41.54790 -113.53866 37808 ft 469 kts 231°
2026-05-04 04:22 41.50661 -113.60623 37818 ft 469 kts 231°
2026-05-04 04:22 41.46532 -113.67368 37817 ft 469 kts 231°
2026-05-04 04:23 41.42427 -113.74058 37818 ft 469 kts 231°
2026-05-04 04:23 41.38283 -113.80796 37823 ft 470 kts 231°
2026-05-04 04:24 41.34122 -113.87543 37821 ft 471 kts 230°
2026-05-04 04:24 41.29955 -113.94216 37826 ft 471 kts 230°
2026-05-04 04:25 41.25747 -114.00926 37826 ft 471 kts 230°
2026-05-04 04:25 41.21543 -114.07625 37823 ft 470 kts 230°
2026-05-04 04:26 41.17367 -114.14272 37829 ft 471 kts 230°
2026-05-04 04:26 41.13165 -114.20949 37828 ft 471 kts 230°
2026-05-04 04:27 41.08976 -114.27589 37836 ft 471 kts 230°
2026-05-04 04:27 41.04769 -114.34243 37834 ft 471 kts 230°
2026-05-04 04:28 41.00538 -114.40919 37831 ft 471 kts 230°
2026-05-04 04:28 40.96329 -114.47547 37837 ft 472 kts 230°
2026-05-04 04:29 40.92097 -114.54197 37837 ft 472 kts 230°
2026-05-04 04:29 40.87882 -114.60805 37835 ft 473 kts 230°
2026-05-04 04:30 40.83625 -114.67465 37852 ft 473 kts 230°
2026-05-04 04:30 40.79376 -114.74099 37838 ft 472 kts 230°
2026-05-04 04:31 40.75146 -114.80688 37831 ft 473 kts 230°
2026-05-04 04:31 40.70884 -114.87311 37831 ft 473 kts 230°
2026-05-04 04:32 40.66637 -114.93904 37840 ft 473 kts 230°
2026-05-04 04:32 40.62361 -115.00523 37836 ft 473 kts 230°
2026-05-04 04:33 40.58127 -115.07054 37821 ft 470 kts 230°
2026-05-04 04:33 40.53883 -115.13588 37836 ft 468 kts 230°
2026-05-04 04:34 40.49658 -115.20081 37828 ft 468 kts 230°
2026-05-04 04:34 40.45410 -115.26599 37813 ft 469 kts 230°
2026-05-04 04:35 40.41179 -115.33081 37808 ft 469 kts 230°
2026-05-04 04:35 40.36920 -115.39587 37813 ft 469 kts 230°
2026-05-04 04:36 40.32664 -115.46073 37820 ft 468 kts 230°
2026-05-04 04:36 40.28440 -115.52499 37806 ft 466 kts 230°
2026-05-04 04:37 40.20001 -115.65297 37814 ft 463 kts 230°
2026-05-04 04:38 40.15801 -115.71647 37797 ft 463 kts 230°
2026-05-04 04:38 40.11571 -115.78029 37805 ft 463 kts 230°
2026-05-04 04:39 40.07370 -115.84354 37824 ft 463 kts 230°
2026-05-04 04:39 40.03135 -115.90717 37824 ft 463 kts 230°
2026-05-04 04:40 39.98907 -115.97057 37815 ft 463 kts 230°
2026-05-04 04:40 39.94685 -116.03375 37817 ft 461 kts 229°
2026-05-04 04:41 39.90501 -116.09623 37814 ft 460 kts 229°
2026-05-04 04:41 39.86285 -116.15906 37833 ft 460 kts 229°
2026-05-04 04:42 39.82064 -116.22184 37821 ft 460 kts 229°
2026-05-04 04:42 39.77860 -116.28425 37816 ft 460 kts 229°
2026-05-04 04:43 39.73639 -116.34678 37821 ft 460 kts 229°
2026-05-04 04:43 39.69411 -116.40931 37839 ft 460 kts 229°
2026-05-04 04:44 39.65174 -116.47180 37835 ft 460 kts 229°
2026-05-04 04:44 39.60956 -116.53385 37831 ft 460 kts 229°
2026-05-04 04:45 39.56712 -116.59616 37834 ft 460 kts 229°
2026-05-04 04:47 39.41898 -116.81276 37838 ft 459 kts 229°
2026-05-04 04:47 39.37646 -116.87465 37839 ft 459 kts 229°
2026-05-04 04:48 39.33435 -116.93583 37847 ft 456 kts 229°
2026-05-04 04:49 39.22904 -117.08828 37838 ft 454 kts 229°
2026-05-04 04:49 39.18722 -117.14862 37866 ft 454 kts 229°
2026-05-04 04:50 39.14501 -117.20943 37860 ft 454 kts 229°
2026-05-04 04:50 39.10282 -117.27006 37869 ft 453 kts 229°
2026-05-04 04:51 39.06084 -117.33026 37867 ft 454 kts 229°
2026-05-04 04:51 39.01868 -117.39061 37870 ft 451 kts 229°
2026-05-04 04:52 38.97694 -117.45026 37871 ft 449 kts 229°
2026-05-04 04:52 38.93501 -117.51006 37889 ft 448 kts 229°
2026-05-04 04:53 38.89348 -117.56919 37886 ft 448 kts 229°
2026-05-04 04:53 38.85169 -117.62857 37896 ft 448 kts 229°
2026-05-04 04:54 38.80987 -117.68788 37896 ft 448 kts 229°
2026-05-04 04:54 38.76799 -117.74716 37898 ft 448 kts 229°
2026-05-04 04:55 38.72631 -117.80604 37885 ft 448 kts 229°
2026-05-04 04:55 38.69152 -117.85509 37896 ft 444 kts 229°
2026-05-04 04:56 38.65003 -117.91351 37894 ft 441 kts 229°
2026-05-04 04:56 38.60887 -117.97136 37898 ft 441 kts 229°
2026-05-04 04:57 38.56704 -118.02888 37890 ft 442 kts 226°
2026-05-04 04:57 38.52126 -118.08105 37880 ft 443 kts 223°
2026-05-04 04:58 38.47452 -118.13287 37868 ft 443 kts 223°
2026-05-04 04:58 38.42781 -118.18443 37867 ft 443 kts 223°
2026-05-04 04:59 38.38146 -118.23543 37858 ft 438 kts 224°
2026-05-04 04:59 38.33554 -118.28587 37857 ft 436 kts 224°
2026-05-04 05:00 38.28955 -118.33631 37856 ft 436 kts 223°
2026-05-04 05:01 38.22068 -118.41168 37839 ft 437 kts 223°
2026-05-04 05:01 38.17450 -118.46210 37834 ft 438 kts 223°
2026-05-04 05:02 38.13179 -118.50866 37804 ft 438 kts 223°
2026-05-04 05:02 38.08615 -118.55830 37843 ft 429 kts 224°
2026-05-04 05:03 38.04086 -118.60750 37844 ft 425 kts 224°
2026-05-04 05:04 37.95095 -118.70501 37865 ft 426 kts 223°
2026-05-04 05:04 37.91176 -118.76067 37906 ft 423 kts 238°
2026-05-04 05:06 37.86714 -119.01406 37939 ft 427 kts 259°
2026-05-04 05:06 37.86288 -119.05135 37942 ft 427 kts 259°
2026-05-04 05:07 37.85432 -119.12575 37904 ft 427 kts 258°
2026-05-04 05:07 37.84568 -119.20023 37924 ft 427 kts 259°
2026-05-04 05:09 37.80614 -119.53562 37964 ft 429 kts 258°
2026-05-04 05:10 37.79719 -119.61040 37965 ft 429 kts 258°
2026-05-04 05:10 37.78828 -119.68458 37968 ft 429 kts 258°
2026-05-04 05:11 37.78379 -119.72174 37615 ft 426 kts 258°
2026-05-04 05:11 37.77931 -119.75863 37109 ft 422 kts 258°
2026-05-04 05:11 37.77485 -119.79531 36433 ft 422 kts 258°
2026-05-04 05:11 37.77037 -119.83198 35768 ft 422 kts 258°
2026-05-04 05:12 37.76587 -119.86882 35127 ft 422 kts 258°
2026-05-04 05:12 37.76133 -119.90577 34362 ft 426 kts 258°
2026-05-04 05:12 37.75679 -119.94266 33538 ft 431 kts 258°
2026-05-04 05:12 37.75214 -119.98032 32715 ft 434 kts 258°
2026-05-04 05:13 37.74747 -120.01811 31983 ft 436 kts 258°
2026-05-04 05:13 37.74278 -120.05604 31452 ft 437 kts 258°
2026-05-04 05:13 37.73804 -120.09420 30896 ft 439 kts 259°
2026-05-04 05:13 37.73329 -120.13236 30343 ft 440 kts 258°
2026-05-04 05:14 37.72859 -120.17008 29733 ft 439 kts 258°
2026-05-04 05:14 37.72382 -120.20818 29140 ft 437 kts 258°
2026-05-04 05:14 37.71907 -120.24607 28575 ft 435 kts 258°
2026-05-04 05:14 37.71433 -120.28378 28072 ft 432 kts 258°
2026-05-04 05:15 37.70968 -120.32075 27922 ft 420 kts 258°
2026-05-04 05:15 37.70514 -120.35679 27586 ft 413 kts 258°
2026-05-04 05:15 37.70056 -120.39282 27116 ft 421 kts 258°
2026-05-04 05:15 37.69593 -120.42968 26904 ft 433 kts 259°
2026-05-04 05:16 37.69158 -120.46717 26441 ft 429 kts 259°
2026-05-04 05:16 37.68733 -120.50442 25689 ft 424 kts 259°
2026-05-04 05:16 37.68325 -120.54005 25407 ft 411 kts 259°
2026-05-04 05:16 37.67917 -120.57529 24774 ft 400 kts 259°
2026-05-04 05:17 37.67507 -120.61030 24463 ft 406 kts 259°
2026-05-04 05:17 37.67098 -120.64516 23829 ft 397 kts 259°
2026-05-04 05:17 37.66686 -120.68003 23529 ft 404 kts 259°
2026-05-04 05:17 37.66278 -120.71466 22881 ft 395 kts 259°
2026-05-04 05:18 37.65863 -120.74961 22585 ft 403 kts 259°
2026-05-04 05:18 37.65456 -120.78405 21906 ft 392 kts 259°
2026-05-04 05:18 37.65042 -120.81836 21349 ft 398 kts 259°
2026-05-04 05:18 37.64622 -120.85307 20866 ft 397 kts 259°
2026-05-04 05:19 37.64208 -120.88728 20500 ft 397 kts 259°
2026-05-04 05:19 37.63792 -120.92164 20065 ft 393 kts 259°
2026-05-04 05:19 37.63385 -120.95514 19630 ft 390 kts 259°
2026-05-04 05:19 37.62962 -120.98883 19179 ft 386 kts 258°
2026-05-04 05:20 37.62516 -121.02210 18779 ft 381 kts 258°
2026-05-04 05:20 37.62072 -121.05489 18328 ft 377 kts 258°
2026-05-04 05:20 37.61637 -121.08722 17964 ft 363 kts 258°
2026-05-04 05:20 37.61231 -121.11758 17607 ft 342 kts 258°
2026-05-04 05:21 37.60841 -121.14662 17121 ft 328 kts 258°
2026-05-04 05:21 37.60462 -121.17476 16730 ft 325 kts 258°
2026-05-04 05:21 37.60083 -121.20279 16375 ft 326 kts 258°
2026-05-04 05:21 37.59703 -121.23085 15934 ft 321 kts 258°
2026-05-04 05:22 37.59327 -121.25865 15664 ft 322 kts 258°
2026-05-04 05:22 37.58975 -121.28606 15275 ft 316 kts 260°
2026-05-04 05:22 37.58665 -121.31346 14830 ft 312 kts 260°
2026-05-04 05:22 37.58360 -121.34069 14565 ft 316 kts 260°
2026-05-04 05:23 37.58053 -121.36785 14095 ft 308 kts 260°
2026-05-04 05:23 37.57747 -121.39464 13847 ft 313 kts 260°
2026-05-04 05:23 37.57439 -121.42149 13407 ft 307 kts 260°
2026-05-04 05:23 37.57129 -121.44835 13086 ft 309 kts 260°
2026-05-04 05:24 37.56819 -121.47515 12710 ft 307 kts 260°
2026-05-04 05:24 37.56516 -121.50122 12424 ft 293 kts 260°
2026-05-04 05:24 37.56228 -121.52616 12018 ft 280 kts 259°
2026-05-04 05:24 37.55948 -121.55022 11670 ft 275 kts 258°
2026-05-04 05:25 37.55674 -121.57359 11367 ft 272 kts 258°
2026-05-04 05:25 37.55399 -121.59701 11102 ft 271 kts 259°
2026-05-04 05:25 37.55109 -121.62020 10694 ft 263 kts 256°
2026-05-04 05:25 37.54654 -121.64247 10503 ft 266 kts 251°
2026-05-04 05:26 37.54134 -121.66457 10130 ft 260 kts 250°
2026-05-04 05:26 37.53601 -121.68668 9865 ft 265 kts 250°
2026-05-04 05:26 37.53084 -121.70825 9550 ft 260 kts 251°
2026-05-04 05:26 37.52562 -121.73004 9217 ft 255 kts 250°
2026-05-04 05:27 37.52041 -121.75177 8940 ft 260 kts 250°
2026-05-04 05:28 37.49203 -121.90572 6565 ft 266 kts 271°
2026-05-04 05:29 37.49348 -121.92860 6227 ft 264 kts 271°
2026-05-04 05:29 37.49497 -121.95187 5907 ft 262 kts 271°
2026-05-04 05:29 37.49636 -121.97438 5593 ft 258 kts 271°
2026-05-04 05:29 37.49771 -121.99684 5273 ft 255 kts 271°
2026-05-04 05:31 37.52258 -122.14028 3153 ft 235 kts 296°
2026-05-04 05:31 37.53020 -122.15818 3008 ft 226 kts 295°
2026-05-04 05:32 37.53731 -122.17498 3012 ft 208 kts 295°
2026-05-04 05:32 37.54380 -122.19035 2981 ft 193 kts 295°
2026-05-04 05:32 37.54983 -122.20479 2817 ft 183 kts 294°
2026-05-04 05:33 37.56139 -122.23253 2273 ft 174 kts 295°
2026-05-04 05:33 37.56708 -122.24612 2034 ft 175 kts 295°
2026-05-04 05:33 37.57258 -122.25922 1804 ft 163 kts 295°
2026-05-04 05:33 37.57773 -122.27149 1582 ft 156 kts 294°
2026-05-04 05:34 37.58281 -122.28365 1368 ft 157 kts 295°
2026-05-04 05:34 37.58785 -122.29570 1144 ft 157 kts 295°
2026-05-04 05:34 37.59295 -122.30787 938 ft 156 kts 295°
2026-05-04 05:34 37.59788 -122.31959 727 ft 146 kts 294°
2026-05-04 05:35 37.60245 -122.33052 541 ft 138 kts 294°
2026-05-04 05:35 37.60694 -122.34125 363 ft 138 kts 293°
2026-05-04 05:35 37.61138 -122.35190 171 ft 139 kts 294°
2026-05-04 05:35 37.61594 -122.36272 29 ft 140 kts 294°
2026-05-04 05:36 37.61970 -122.37212 25 ft 87 kts 302°
2026-05-04 05:36 37.62158 -122.37628 29 ft 38 kts 296°
2026-05-04 05:36 37.62215 -122.37928 28 ft 33 kts 276°
2026-05-04 05:36 37.62228 -122.38179 28 ft 25 kts 264°
2026-05-04 05:37 37.62120 -122.38319 27 ft 23 kts 176°
2026-05-04 05:37 37.62027 -122.38172 28 ft 23 kts 118°
2026-05-04 05:37 37.61938 -122.37983 27 ft 26 kts 130°
2026-05-04 05:38 37.61577 -122.37932 22 ft 31 kts 207°
2026-05-04 05:38 37.61385 -122.38056 24 ft 32 kts 207°
2026-05-04 05:38 37.61186 -122.38189 25 ft 32 kts 209°
2026-05-04 05:38 37.60987 -122.38321 24 ft 32 kts 207°
2026-05-04 05:39 37.60881 -122.38435 26 ft 16 kts 266°
2026-05-04 05:39 37.60942 -122.38698 24 ft 22 kts 300°
2026-05-04 05:39 37.61069 -122.38891 27 ft 20 kts 359°
2026-05-04 05:40 37.61186 -122.38816 28 ft 0 kts 33°
2026-05-04 05:40 37.61187 -122.38816 28 ft 0 kts 29°
2026-05-04 05:40 37.61197 -122.38821 29 ft 1 kts 336°
2026-05-04 05:41 37.61199 -122.38830 28 ft 2 kts 295°
2026-05-04 05:41 37.61209 -122.38865 29 ft 6 kts 294°
2026-05-04 05:41 37.61221 -122.38893 29 ft 0 kts 297°